GW1066 Weather Reports


Display with metric or nautical units.
time (UTC)temp
F
wind
direction
speed
MPH
gust
MPH
rain 1hr
in
rain 24hr
in
rain mn
in
humidity
%
barometer
mb
20260506154703 80 184 1.0 6.0 0.00 0.00 0.00 26 1013.2
20260506154603 80 184 1.0 6.0 0.00 0.00 0.00 26 1013.4
20260506154503 80 184 1.0 6.0 0.00 0.00 0.00 26 1013.3
20260506154403 80 183 1.0 6.0 0.00 0.00 0.00 26 1013.4
20260506154303 80 184 1.0 6.0 0.00 0.00 0.00 25 1013.4
20260506154203 80 175 0.0 4.0 0.00 0.00 0.00 26 1013.2
20260506154103 80 171 0.0 4.0 0.00 0.00 0.00 26 1013.3
20260506154003 80 171 0.0 4.0 0.00 0.00 0.00 26 1013.3
20260506153903 80 177 0.0 3.0 0.00 0.00 0.00 25 1013.3
20260506153803 80 182 0.0 3.0 0.00 0.00 0.00 26 1013.4
20260506153703 80 184 0.0 2.0 0.00 0.00 0.00 26 1013.4
20260506153624 80 184 0.0 2.0 0.00 0.00 0.00 25 1013.2
20260506153503 80 184 0.0 2.0 0.00 0.00 0.00 25 1013.2
20260506153424 80 184 0.0 2.0 0.00 0.00 0.00 25 1013.4
20260506153324 80 184 0.0 2.0 0.00 0.00 0.00 25 1013.2
20260506153203 80 231 0.0 3.0 0.00 0.00 0.00 24 1013.3
20260506153103 80 226 0.0 4.0 0.00 0.00 0.00 25 1013.4
20260506153004 80 222 0.0 4.0 0.00 0.00 0.00 25 1013.4
20260506152903 80 212 0.0 6.0 0.00 0.00 0.00 25 1013.3
20260506152824 80 210 0.0 6.0 0.00 0.00 0.00 25 1013.2
20260506152704 80 210 0.0 6.0 0.00 0.00 0.00 25 1013.3
20260506152603 80 210 0.0 6.0 0.00 0.00 0.00 25 1013.5
20260506152503 80 206 0.0 6.0 0.00 0.00 0.00 25 1013.3
20260506152404 80 206 1.0 6.0 0.00 0.00 0.00 25 1013.4
20260506152305 80 204 1.0 6.0 0.00 0.00 0.00 25 1013.7
20260506152204 80 201 1.0 6.0 0.00 0.00 0.00 25 1013.3
20260506152103 80 196 1.0 6.0 0.00 0.00 0.00 25 1013.3
20260506152003 81 192 1.0 6.0 0.00 0.00 0.00 25 1013.5
20260506151904 81 191 1.0 6.0 0.00 0.00 0.00 25 1013.3
20260506151724 81 192 1.0 6.0 0.00 0.00 0.00 25 1013.4
20260506151603 81 192 1.0 6.0 0.00 0.00 0.00 25 1013.8
20260506151524 81 192 1.0 6.0 0.00 0.00 0.00 25 1013.5
20260506151403 81 192 0.0 6.0 0.00 0.00 0.00 24 1013.6
20260506151303 81 191 0.0 6.0 0.00 0.00 0.00 24 1013.6
20260506151203 81 197 1.0 6.0 0.00 0.00 0.00 24 1013.4
20260506151103 81 205 1.0 4.0 0.00 0.00 0.00 23 1013.5
20260506151003 81 210 0.0 4.0 0.00 0.00 0.00 23 1013.3
20260506150903 81 211 0.0 4.0 0.00 0.00 0.00 23 1013.7
20260506150803 82 209 0.0 4.0 0.00 0.00 0.00 23 1013.4
20260506150703 82 198 0.0 4.0 0.00 0.00 0.00 23 1013.5
20260506150603 82 194 1.0 4.0 0.00 0.00 0.00 23 1013.4
20260506150504 82 194 1.0 4.0 0.00 0.00 0.00 23 1013.5
20260506150424 82 194 1.0 4.0 0.00 0.00 0.00 23 1013.5
20260506150305 82 196 1.0 4.0 0.00 0.00 0.00 23 1013.4
20260506150203 82 181 0.0 4.0 0.00 0.00 0.00 22 1013.4
20260506150103 82 175 0.0 4.0 0.00 0.00 0.00 22 1013.6
20260506150004 82 176 0.0 4.0 0.00 0.00 0.00 22 1013.4
20260506145903 82 177 0.0 4.0 0.00 0.00 0.00 21 1013.6
20260506145825 82 176 0.0 4.0 0.00 0.00 0.00 22 1013.6
20260506145703 82 183 0.0 4.0 0.00 0.00 0.00 21 1013.5
20260506145603 82 186 0.0 4.0 0.00 0.00 0.00 21 1013.6
20260506145524 82 186 0.0 4.0 0.00 0.00 0.00 21 1013.6
20260506145403 82 186 0.0 4.0 0.00 0.00 0.00 21 1013.7
20260506145305 82 186 0.0 4.0 0.00 0.00 0.00 22 1013.6
20260506145203 82 192 0.0 4.0 0.00 0.00 0.00 22 1013.8
20260506145103 82 187 0.0 3.0 0.00 0.00 0.00 23 1013.4
20260506145024 82 187 0.0 3.0 0.00 0.00 0.00 22 1013.4
20260506144904 82 186 0.0 3.0 0.00 0.00 0.00 22 1013.5
20260506144824 82 188 0.0 6.0 0.00 0.00 0.00 22 1013.4
20260506144703 82 185 0.0 6.0 0.00 0.00 0.00 22 1013.6
20260506144603 82 186 0.0 6.0 0.00 0.00 0.00 21 1013.4
20260506144503 82 186 0.0 6.0 0.00 0.00 0.00 21 1013.6
20260506144403 82 181 0.0 6.0 0.00 0.00 0.00 22 1013.5
20260506144304 82 184 0.0 6.0 0.00 0.00 0.00 23 1013.4
20260506144224 82 184 0.0 6.0 0.00 0.00 0.00 23 1013.6
20260506144104 82 185 0.0 6.0 0.00 0.00 0.00 22 1013.5
20260506144003 82 187 0.0 6.0 0.00 0.00 0.00 21 1013.7
20260506143924 83 184 0.0 6.0 0.00 0.00 0.00 22 1013.7
20260506143803 83 175 1.0 4.0 0.00 0.00 0.00 22 1013.5
20260506143724 83 176 0.0 4.0 0.00 0.00 0.00 22 1013.8
20260506143604 83 175 1.0 4.0 0.00 0.00 0.00 21 1013.6
20260506143503 83 174 1.0 4.0 0.00 0.00 0.00 23 1013.7
20260506143403 83 175 1.0 4.0 0.00 0.00 0.00 22 1013.7
20260506143303 83 171 0.0 4.0 0.00 0.00 0.00 21 1013.8
20260506143203 83 171 0.0 4.0 0.00 0.00 0.00 22 1013.8
20260506143103 83 171 0.0 4.0 0.00 0.00 0.00 21 1013.7
20260506143024 83 166 0.0 4.0 0.00 0.00 0.00 23 1013.7
20260506142924 83 165 0.0 4.0 0.00 0.00 0.00 21 1013.5
20260506142803 83 176 0.0 3.0 0.00 0.00 0.00 22 1013.5
20260506142703 83 178 0.0 3.0 0.00 0.00 0.00 21 1013.8
20260506142603 83 185 0.0 2.0 0.00 0.00 0.00 20 1013.4
20260506142503 83 185 0.0 2.0 0.00 0.00 0.00 20 1013.4
20260506142403 83 181 0.0 3.0 0.00 0.00 0.00 20 1013.5
20260506142306 83 181 0.0 3.0 0.00 0.00 0.00 20 1013.5
20260506142203 83 187 0.0 3.0 0.00 0.00 0.00 20 1013.5
20260506142103 83 190 0.0 3.0 0.00 0.00 0.00 20 1013.7
20260506142003 83 191 0.0 3.0 0.00 0.00 0.00 21 1013.7
20260506141924 83 191 0.0 3.0 0.00 0.00 0.00 21 1013.7
20260506141803 83 194 0.0 3.0 0.00 0.00 0.00 21 1013.7
20260506141703 83 195 0.0 3.0 0.00 0.00 0.00 22 1013.5
20260506141624 83 196 0.0 3.0 0.00 0.00 0.00 21 1013.8
20260506141503 83 196 0.0 3.0 0.00 0.00 0.00 21 1013.4
20260506141404 83 207 1.0 4.0 0.00 0.00 0.00 22 1013.7
20260506141303 83 208 1.0 4.0 0.00 0.00 0.00 21 1013.5
20260506141203 83 207 0.0 4.0 0.00 0.00 0.00 22 1013.7
20260506141103 83 210 0.0 4.0 0.00 0.00 0.00 21 1013.7
20260506141003 83 208 0.0 4.0 0.00 0.00 0.00 21 1013.8
20260506140903 83 214 0.0 4.0 0.00 0.00 0.00 22 1013.7
20260506140803 83 214 0.0 4.0 0.00 0.00 0.00 21 1013.6
20260506140724 83 212 0.0 4.0 0.00 0.00 0.00 21 1013.6
20260506140603 83 197 1.0 4.0 0.00 0.00 0.00 21 1013.6
20260506140503 83 189 1.0 4.0 0.00 0.00 0.00 22 1013.7
20260506140403 83 182 1.0 4.0 0.00 0.00 0.00 21 1013.7
20260506140303 83 177 0.0 4.0 0.00 0.00 0.00 22 1013.7
20260506140224 83 173 1.0 4.0 0.00 0.00 0.00 22 1013.7
20260506140103 83 172 1.0 4.0 0.00 0.00 0.00 21 1013.6
20260506140004 83 169 1.0 3.0 0.00 0.00 0.00 21 1013.8
20260506135903 83 173 1.0 3.0 0.00 0.00 0.00 21 1013.7
20260506135803 83 172 1.0 3.0 0.00 0.00 0.00 21 1013.7
20260506135703 83 172 1.0 3.0 0.00 0.00 0.00 21 1013.7
20260506135624 83 174 1.0 3.0 0.00 0.00 0.00 21 1013.5
20260506135503 84 183 0.0 3.0 0.00 0.00 0.00 21 1013.5
20260506135404 84 187 0.0 3.0 0.00 0.00 0.00 21 1013.7
20260506135306 84 188 1.0 3.0 0.00 0.00 0.00 21 1013.5
20260506135203 83 193 1.0 3.0 0.00 0.00 0.00 21 1013.8
20260506135103 83 197 1.0 3.0 0.00 0.00 0.00 22 1013.7
20260506135003 83 198 1.0 3.0 0.00 0.00 0.00 22 1013.8
20260506134903 83 196 0.0 3.0 0.00 0.00 0.00 22 1013.9
20260506134824 83 197 0.0 3.0 0.00 0.00 0.00 21 1013.8
20260506134703 83 199 1.0 3.0 0.00 0.00 0.00 23 1013.8
20260506134603 83 198 1.0 4.0 0.00 0.00 0.00 22 1013.7
20260506134504 83 197 1.0 4.0 0.00 0.00 0.00 22 1013.7
20260506134403 83 196 1.0 4.0 0.00 0.00 0.00 22 1013.6
20260506134303 83 197 1.0 4.0 0.00 0.00 0.00 22 1013.8
20260506134203 83 197 1.0 4.0 0.00 0.00 0.00 21 1013.7
20260506134103 83 194 1.0 4.0 0.00 0.00 0.00 22 1013.6
20260506134003 83 192 1.0 4.0 0.00 0.00 0.00 21 1013.7
20260506133903 83 192 1.0 4.0 0.00 0.00 0.00 23 1013.8
20260506133803 83 192 1.0 4.0 0.00 0.00 0.00 22 1013.8
20260506133703 83 197 1.0 7.0 0.00 0.00 0.00 21 1013.6
20260506133603 84 197 1.0 7.0 0.00 0.00 0.00 22 1013.7
20260506133503 84 186 1.0 7.0 0.00 0.00 0.00 22 1013.6
20260506133403 83 186 1.0 7.0 0.00 0.00 0.00 22 1013.6
20260506133303 83 185 1.0 7.0 0.00 0.00 0.00 22 1013.7
20260506133203 83 185 1.0 7.0 0.00 0.00 0.00 22 1013.8
20260506133104 83 182 1.0 7.0 0.00 0.00 0.00 22 1013.9
20260506133003 83 185 1.0 7.0 0.00 0.00 0.00 22 1013.9
20260506132903 83 186 1.0 7.0 0.00 0.00 0.00 23 1013.7
20260506132803 83 186 1.0 7.0 0.00 0.00 0.00 23 1013.8
20260506132703 83 182 1.0 7.0 0.00 0.00 0.00 22 1013.9
20260506132603 83 181 1.0 7.0 0.00 0.00 0.00 23 1014.0
20260506132503 83 188 1.0 4.0 0.00 0.00 0.00 22 1013.8
20260506132403 83 187 1.0 4.0 0.00 0.00 0.00 22 1013.8
20260506132306 83 192 1.0 6.0 0.00 0.00 0.00 22 1013.7
20260506132203 83 188 1.0 7.0 0.00 0.00 0.00 22 1013.8
20260506132103 83 192 1.0 7.0 0.00 0.00 0.00 23 1013.7
20260506132003 83 196 1.0 8.0 0.00 0.00 0.00 23 1013.6
20260506131904 83 195 1.0 8.0 0.00 0.00 0.00 24 1013.8
20260506131824 83 195 1.0 8.0 0.00 0.00 0.00 22 1013.7
20260506131703 83 196 1.0 8.0 0.00 0.00 0.00 22 1013.8
20260506131603 83 196 1.0 8.0 0.00 0.00 0.00 22 1013.8
20260506131503 83 197 1.0 8.0 0.00 0.00 0.00 22 1013.7
20260506131403 83 199 1.0 8.0 0.00 0.00 0.00 22 1013.9
20260506131303 83 198 1.0 8.0 0.00 0.00 0.00 23 1013.7
20260506131203 84 202 1.0 8.0 0.00 0.00 0.00 22 1013.8
20260506131103 84 199 1.0 8.0 0.00 0.00 0.00 23 1013.8
20260506131003 83 192 0.0 6.0 0.00 0.00 0.00 22 1013.8
20260506130905 83 188 0.0 3.0 0.00 0.00 0.00 23 1013.9
20260506130824 83 188 0.0 3.0 0.00 0.00 0.00 23 1013.7
20260506130724 83 188 0.0 3.0 0.00 0.00 0.00 21 1013.8
20260506130603 83 193 0.0 6.0 0.00 0.00 0.00 22 1013.9
20260506130503 83 193 0.0 6.0 0.00 0.00 0.00 23 1013.9
20260506130403 84 194 0.0 6.0 0.00 0.00 0.00 23 1013.9
20260506130324 84 198 0.0 6.0 0.00 0.00 0.00 22 1013.9
20260506130203 84 197 0.0 6.0 0.00 0.00 0.00 23 1013.9
20260506130103 84 200 0.0 6.0 0.00 0.00 0.00 22 1014.0
20260506130004 83 193 1.0 6.0 0.00 0.00 0.00 22 1013.8
20260506125903 83 190 1.0 6.0 0.00 0.00 0.00 23 1014.0
20260506125824 83 192 1.0 8.0 0.00 0.00 0.00 22 1014.0
20260506125703 83 190 1.0 8.0 0.00 0.00 0.00 21 1013.9
20260506125603 83 190 1.0 8.0 0.00 0.00 0.00 21 1014.0
20260506125503 83 191 1.0 8.0 0.00 0.00 0.00 21 1014.0
20260506125403 83 196 1.0 8.0 0.00 0.00 0.00 21 1014.0
20260506125305 83 198 2.0 8.0 0.00 0.00 0.00 21 1014.1
20260506125224 83 198 2.0 8.0 0.00 0.00 0.00 22 1014.0
20260506125103 83 201 2.0 8.0 0.00 0.00 0.00 22 1014.1
20260506125003 83 204 2.0 8.0 0.00 0.00 0.00 21 1014.2
20260506124903 82 208 2.0 8.0 0.00 0.00 0.00 22 1014.0
20260506124803 82 212 1.0 6.0 0.00 0.00 0.00 23 1014.2
20260506124703 82 214 1.0 6.0 0.00 0.00 0.00 22 1014.2
20260506124603 82 213 1.0 6.0 0.00 0.00 0.00 22 1014.0
20260506124524 82 214 2.0 6.0 0.00 0.00 0.00 23 1014.1
20260506124403 83 210 1.0 6.0 0.00 0.00 0.00 22 1014.1
20260506124303 83 210 1.0 6.0 0.00 0.00 0.00 23 1014.2
20260506124224 83 212 1.0 6.0 0.00 0.00 0.00 23 1013.9
20260506124103 82 211 1.0 6.0 0.00 0.00 0.00 24 1014.1
20260506124004 82 210 1.0 6.0 0.00 0.00 0.00 23 1014.0
20260506123904 82 211 1.0 6.0 0.00 0.00 0.00 23 1013.9
20260506123804 82 210 1.0 6.0 0.00 0.00 0.00 23 1013.9
20260506123725 82 209 1.0 6.0 0.00 0.00 0.00 23 1014.0
20260506123604 83 210 1.0 6.0 0.00 0.00 0.00 22 1014.1
20260506123503 83 208 1.0 6.0 0.00 0.00 0.00 21 1014.2
20260506123404 83 212 1.0 6.0 0.00 0.00 0.00 22 1014.0
20260506123325 83 210 1.0 6.0 0.00 0.00 0.00 23 1014.1
20260506123225 84 206 1.0 6.0 0.00 0.00 0.00 23 1014.1
20260506123104 85 204 0.0 4.0 0.00 0.00 0.00 23 1014.2
20260506123030 85 216 1.0 4.0 0.00 0.00 0.00 22 1014.0
20260506122904 84 211 1.0 6.0 0.00 0.00 0.00 23 1014.0
20260506122803 84 208 1.0 6.0 0.00 0.00 0.00 22 1014.3
20260506122703 83 207 1.0 6.0 0.00 0.00 0.00 23 1014.3
20260506122605 83 204 1.0 6.0 0.00 0.00 0.00 22 1014.2
20260506122205 83 205 1.0 6.0 0.00 0.00 0.00 22 1014.3
20260506122103 83 204 1.0 6.0 0.00 0.00 0.00 22 1014.3
20260506122003 84 198 1.0 6.0 0.00 0.00 0.00 22 1014.1
20260506121903 84 196 0.0 4.0 0.00 0.00 0.00 21 1014.3
20260506121803 84 197 0.0 4.0 0.00 0.00 0.00 21 1014.6
20260506121703 84 197 0.0 4.0 0.00 0.00 0.00 23 1014.3
20260506121603 84 199 0.0 4.0 0.00 0.00 0.00 22 1014.3
20260506121503 84 195 0.0 4.0 0.00 0.00 0.00 23 1014.2
20260506121403 84 188 0.0 4.0 0.00 0.00 0.00 22 1014.6
20260506121324 84 178 0.0 4.0 0.00 0.00 0.00 23 1014.2
20260506121203 84 177 0.0 4.0 0.00 0.00 0.00 22 1014.3
20260506121103 84 177 0.0 4.0 0.00 0.00 0.00 23 1014.1
20260506121024 84 178 0.0 4.0 0.00 0.00 0.00 23 1014.4
20260506120924 84 176 0.0 4.0 0.00 0.00 0.00 22 1014.4
20260506120803 84 171 0.0 4.0 0.00 0.00 0.00 22 1014.6
20260506120703 84 173 0.0 4.0 0.00 0.00 0.00 22 1014.4
20260506120603 84 176 0.0 4.0 0.00 0.00 0.00 22 1014.4
20260506120503 84 176 0.0 4.0 0.00 0.00 0.00 22 1014.6
20260506120403 84 180 0.0 3.0 0.00 0.00 0.00 23 1014.6
20260506120303 84 180 0.0 3.0 0.00 0.00 0.00 22 1014.6
20260506120203 84 181 1.0 6.0 0.00 0.00 0.00 23 1014.6
20260506120103 83 178 1.0 6.0 0.00 0.00 0.00 22 1014.6
20260506120003 83 177 1.0 6.0 0.00 0.00 0.00 22 1014.4
20260506115903 83 177 1.0 6.0 0.00 0.00 0.00 22 1014.4
20260506115803 84 176 1.0 6.0 0.00 0.00 0.00 21 1014.4
20260506115703 83 174 1.0 6.0 0.00 0.00 0.00 23 1014.6
20260506115603 83 172 1.0 6.0 0.00 0.00 0.00 21 1014.3
20260506115503 83 171 1.0 6.0 0.00 0.00 0.00 22 1014.4
20260506115403 83 171 1.0 6.0 0.00 0.00 0.00 22 1014.3
20260506115306 83 170 1.0 6.0 0.00 0.00 0.00 23 1014.7
20260506115203 83 173 1.0 6.0 0.00 0.00 0.00 22 1014.6
20260506115103 83 179 1.0 6.0 0.00 0.00 0.00 21 1014.6
20260506115003 83 180 1.0 6.0 0.00 0.00 0.00 22 1014.7
20260506114903 83 181 1.0 6.0 0.00 0.00 0.00 22 1014.4
20260506114803 83 182 1.0 6.0 0.00 0.00 0.00 22 1014.4
20260506114703 83 184 1.0 6.0 0.00 0.00 0.00 22 1014.6
20260506114603 83 184 1.0 6.0 0.00 0.00 0.00 23 1014.9
20260506114503 83 188 1.0 6.0 0.00 0.00 0.00 22 1014.7
20260506114403 84 195 0.0 4.0 0.00 0.00 0.00 23 1014.7
20260506114303 84 201 0.0 4.0 0.00 0.00 0.00 23 1014.8
20260506114203 85 193 0.0 4.0 0.00 0.00 0.00 21 1014.3
20260506114103 85 172 0.0 3.0 0.00 0.00 0.00 23 1014.4
20260506114024 85 176 0.0 2.0 0.00 0.00 0.00 23 1014.6
20260506113904 85 186 0.0 2.0 0.00 0.00 0.00 21 1014.7
20260506113803 85 186 0.0 2.0 0.00 0.00 0.00 22 1014.8
20260506113724 84 186 0.0 2.0 0.00 0.00 0.00 21 1014.8
20260506113603 84 191 0.0 2.0 0.00 0.00 0.00 22 1014.8
20260506113503 83 191 0.0 2.0 0.00 0.00 0.00 23 1014.7
20260506113424 83 191 0.0 2.0 0.00 0.00 0.00 23 1014.7
20260506113303 83 194 0.0 2.0 0.00 0.00 0.00 22 1014.9
20260506113224 83 195 0.0 3.0 0.00 0.00 0.00 23 1014.8
20260506113103 84 181 1.0 7.0 0.00 0.00 0.00 22 1014.6
20260506113003 84 176 1.0 7.0 0.00 0.00 0.00 22 1014.9
20260506112903 84 173 1.0 7.0 0.00 0.00 0.00 22 1014.8
20260506112803 84 170 1.0 7.0 0.00 0.00 0.00 22 1014.9
20260506112703 84 170 1.0 7.0 0.00 0.00 0.00 22 1014.7
20260506112603 83 170 1.0 7.0 0.00 0.00 0.00 22 1015.0
20260506112503 83 170 1.0 7.0 0.00 0.00 0.00 24 1014.8
20260506112403 83 169 1.0 7.0 0.00 0.00 0.00 23 1014.9
20260506112305 83 169 1.0 7.0 0.00 0.00 0.00 23 1015.0
20260506112203 84 165 1.0 7.0 0.00 0.00 0.00 22 1014.8
20260506112103 84 168 0.0 6.0 0.00 0.00 0.00 23 1015.0
20260506112003 84 170 0.0 6.0 0.00 0.00 0.00 24 1014.9
20260506111903 84 171 0.0 6.0 0.00 0.00 0.00 24 1014.9
20260506111803 84 183 0.0 3.0 0.00 0.00 0.00 24 1014.8
20260506111703 84 194 1.0 6.0 0.00 0.00 0.00 23 1014.8
20260506111624 84 194 1.0 6.0 0.00 0.00 0.00 24 1014.4
20260506111503 83 196 1.0 6.0 0.00 0.00 0.00 24 1015.1
20260506111403 83 201 1.0 6.0 0.00 0.00 0.00 23 1014.8
20260506111303 83 202 1.0 6.0 0.00 0.00 0.00 24 1015.0
20260506111203 82 202 1.0 6.0 0.00 0.00 0.00 23 1015.0
20260506111103 82 206 1.0 6.0 0.00 0.00 0.00 23 1014.8
20260506111003 82 203 1.0 6.0 0.00 0.00 0.00 25 1014.8
20260506110903 82 205 1.0 7.0 0.00 0.00 0.00 24 1014.8
20260506110803 82 206 1.0 7.0 0.00 0.00 0.00 24 1015.1
20260506110703 82 206 1.0 7.0 0.00 0.00 0.00 24 1014.9
20260506110603 82 204 1.0 7.0 0.00 0.00 0.00 23 1014.9
20260506110503 82 203 1.0 7.0 0.00 0.00 0.00 24 1015.0
20260506110403 82 197 1.0 7.0 0.00 0.00 0.00 24 1015.0
20260506110303 82 195 1.0 7.0 0.00 0.00 0.00 24 1014.9
20260506110203 82 197 1.0 7.0 0.00 0.00 0.00 24 1015.0
20260506110103 82 203 1.0 7.0 0.00 0.00 0.00 23 1015.0
20260506110004 82 205 1.0 7.0 0.00 0.00 0.00 24 1015.0
20260506105903 82 206 1.0 6.0 0.00 0.00 0.00 24 1014.9
20260506105803 81 206 1.0 6.0 0.00 0.00 0.00 25 1015.0
20260506105703 81 205 2.0 6.0 0.00 0.00 0.00 25 1015.3
20260506105603 81 207 2.0 7.0 0.00 0.00 0.00 24 1015.0
20260506105503 81 210 2.0 7.0 0.00 0.00 0.00 25 1015.1
20260506105424 81 210 2.0 7.0 0.00 0.00 0.00 24 1015.1
20260506105305 81 217 2.0 8.0 0.00 0.00 0.00 24 1015.2
20260506105203 81 218 2.0 8.0 0.00 0.00 0.00 24 1015.1
20260506105103 81 216 2.0 8.0 0.00 0.00 0.00 25 1015.1
20260506105003 80 215 2.0 8.0 0.00 0.00 0.00 26 1015.1
20260506104903 80 211 2.0 8.0 0.00 0.00 0.00 26 1015.1
20260506104803 81 211 2.0 8.0 0.00 0.00 0.00 25 1015.2
20260506104703 81 212 2.0 8.0 0.00 0.00 0.00 25 1015.0
20260506104624 81 211 1.0 8.0 0.00 0.00 0.00 25 1015.0
20260506104503 82 206 1.0 8.0 0.00 0.00 0.00 24 1015.0
20260506104403 83 194 1.0 6.0 0.00 0.00 0.00 24 1015.1
20260506104303 83 185 1.0 6.0 0.00 0.00 0.00 25 1015.1
20260506104203 83 179 0.0 6.0 0.00 0.00 0.00 25 1015.0
20260506104124 83 180 0.0 6.0 0.00 0.00 0.00 25 1015.1
20260506104003 83 176 1.0 6.0 0.00 0.00 0.00 24 1015.2
20260506103903 82 172 1.0 6.0 0.00 0.00 0.00 26 1015.0
20260506103803 82 172 1.0 6.0 0.00 0.00 0.00 25 1015.0
20260506103703 82 172 0.0 6.0 0.00 0.00 0.00 24 1015.2
20260506103624 82 172 1.0 6.0 0.00 0.00 0.00 25 1015.3
20260506103503 81 172 1.0 6.0 0.00 0.00 0.00 25 1015.0
20260506103403 81 170 1.0 7.0 0.00 0.00 0.00 25 1015.0
20260506103303 81 171 1.0 7.0 0.00 0.00 0.00 26 1015.4
20260506103224 81 168 1.0 7.0 0.00 0.00 0.00 25 1015.3
20260506103125 81 170 1.0 7.0 0.00 0.00 0.00 26 1015.2
20260506103003 81 172 1.0 7.0 0.00 0.00 0.00 25 1014.9
20260506102903 81 173 1.0 7.0 0.00 0.00 0.00 25 1015.2
20260506102803 81 175 1.0 7.0 0.00 0.00 0.00 26 1015.2
20260506102704 81 184 2.0 7.0 0.00 0.00 0.00 25 1015.0
20260506102624 81 185 1.0 7.0 0.00 0.00 0.00 25 1015.2
20260506102503 81 187 1.0 7.0 0.00 0.00 0.00 25 1015.3
20260506102403 81 194 1.0 6.0 0.00 0.00 0.00 25 1015.2
20260506102305 81 197 1.0 6.0 0.00 0.00 0.00 26 1015.4
20260506102203 81 201 1.0 6.0 0.00 0.00 0.00 26 1015.3
20260506102103 81 203 1.0 6.0 0.00 0.00 0.00 25 1015.2
20260506102024 81 205 1.0 6.0 0.00 0.00 0.00 25 1015.0
20260506101903 82 209 1.0 6.0 0.00 0.00 0.00 27 1015.2
20260506101803 82 208 1.0 6.0 0.00 0.00 0.00 25 1015.2
20260506101703 82 199 0.0 3.0 0.00 0.00 0.00 25 1015.4
20260506101624 82 199 0.0 3.0 0.00 0.00 0.00 25 1015.4
20260506101503 82 206 1.0 4.0 0.00 0.00 0.00 26 1015.3
20260506101403 82 204 1.0 4.0 0.00 0.00 0.00 25 1015.4
20260506101303 82 204 1.0 6.0 0.00 0.00 0.00 26 1015.2
20260506101203 82 202 1.0 6.0 0.00 0.00 0.00 25 1015.2
20260506101103 82 202 1.0 6.0 0.00 0.00 0.00 27 1015.3
20260506101003 81 203 1.0 6.0 0.00 0.00 0.00 26 1015.1
20260506100903 81 200 1.0 6.0 0.00 0.00 0.00 27 1015.3
20260506100803 81 204 1.0 6.0 0.00 0.00 0.00 26 1015.1
20260506100703 81 204 1.0 6.0 0.00 0.00 0.00 26 1015.1
20260506100603 80 204 1.0 6.0 0.00 0.00 0.00 26 1015.3
20260506100503 80 201 1.0 6.0 0.00 0.00 0.00 28 1015.1
20260506100403 80 203 1.0 6.0 0.00 0.00 0.00 27 1015.3
20260506100303 80 199 1.0 6.0 0.00 0.00 0.00 28 1015.3
20260506100203 80 204 2.0 6.0 0.00 0.00 0.00 27 1015.3
20260506100103 80 211 2.0 6.0 0.00 0.00 0.00 28 1015.3
20260506100004 80 211 2.0 6.0 0.00 0.00 0.00 28 1015.3
20260506095924 80 214 1.0 6.0 0.00 0.00 0.00 27 1015.2
20260506095803 80 206 1.0 6.0 0.00 0.00 0.00 28 1015.2
20260506095703 79 208 1.0 6.0 0.00 0.00 0.00 29 1015.2
20260506095603 79 208 1.0 6.0 0.00 0.00 0.00 28 1015.4
20260506095503 79 206 1.0 6.0 0.00 0.00 0.00 28 1015.4
20260506095403 79 206 1.0 6.0 0.00 0.00 0.00 28 1015.3
20260506095305 80 210 1.0 6.0 0.00 0.00 0.00 29 1015.3
20260506095203 80 205 1.0 6.0 0.00 0.00 0.00 28 1015.2
20260506095103 80 198 1.0 6.0 0.00 0.00 0.00 28 1015.4
20260506095003 80 201 1.0 6.0 0.00 0.00 0.00 27 1015.5
20260506094924 80 208 1.0 6.0 0.00 0.00 0.00 28 1015.4
20260506094803 80 217 1.0 7.0 0.00 0.00 0.00 28 1015.4
20260506094703 80 208 1.0 7.0 0.00 0.00 0.00 28 1015.5
20260506094624 80 208 1.0 7.0 0.00 0.00 0.00 29 1015.3
20260506094504 80 206 1.0 7.0 0.00 0.00 0.00 29 1015.5
20260506094403 80 204 1.0 7.0 0.00 0.00 0.00 29 1015.4
20260506094303 80 205 1.0 7.0 0.00 0.00 0.00 30 1015.4
20260506094203 80 213 1.0 7.0 0.00 0.00 0.00 28 1015.2
20260506094124 80 208 1.0 7.0 0.00 0.00 0.00 28 1015.4
20260506094003 80 205 1.0 7.0 0.00 0.00 0.00 28 1015.4
20260506093903 80 203 1.0 7.0 0.00 0.00 0.00 28 1015.3
20260506093803 80 199 1.0 6.0 0.00 0.00 0.00 29 1015.5
20260506093703 79 202 1.0 8.0 0.00 0.00 0.00 28 1015.3
20260506093603 79 202 1.0 8.0 0.00 0.00 0.00 29 1015.4
20260506093503 78 200 1.0 8.0 0.00 0.00 0.00 29 1015.4
20260506093403 78 201 1.0 8.0 0.00 0.00 0.00 30 1015.4
20260506093303 79 200 1.0 8.0 0.00 0.00 0.00 29 1015.5
20260506093203 79 196 1.0 8.0 0.00 0.00 0.00 28 1015.5
20260506093103 79 192 1.0 8.0 0.00 0.00 0.00 29 1015.3
20260506093003 79 184 1.0 8.0 0.00 0.00 0.00 29 1015.4
20260506092903 79 177 1.0 8.0 0.00 0.00 0.00 28 1015.6
20260506092824 80 177 1.0 8.0 0.00 0.00 0.00 29 1015.6
20260506092703 80 174 0.0 4.0 0.00 0.00 0.00 29 1015.3
20260506092603 80 173 0.0 4.0 0.00 0.00 0.00 29 1015.6
20260506092503 80 182 1.0 6.0 0.00 0.00 0.00 29 1015.3
20260506092403 79 187 1.0 6.0 0.00 0.00 0.00 30 1015.4
20260506092305 79 187 1.0 6.0 0.00 0.00 0.00 30 1015.5
20260506092203 79 193 1.0 6.0 0.00 0.00 0.00 30 1015.6
20260506092103 79 194 1.0 6.0 0.00 0.00 0.00 30 1015.6
20260506092003 79 200 1.0 6.0 0.00 0.00 0.00 30 1015.5
20260506091903 79 201 1.0 6.0 0.00 0.00 0.00 30 1015.5
20260506091803 79 203 1.0 6.0 0.00 0.00 0.00 29 1015.5
20260506091703 79 201 1.0 6.0 0.00 0.00 0.00 31 1015.6
20260506091603 79 197 1.0 6.0 0.00 0.00 0.00 31 1015.7
20260506091503 79 196 1.0 6.0 0.00 0.00 0.00 30 1015.6
20260506091403 79 193 1.0 6.0 0.00 0.00 0.00 32 1015.5
20260506091303 79 186 1.0 6.0 0.00 0.00 0.00 30 1015.6
20260506091203 79 174 1.0 6.0 0.00 0.00 0.00 31 1015.4
20260506091124 79 173 1.0 6.0 0.00 0.00 0.00 31 1015.7
20260506091003 79 173 1.0 7.0 0.00 0.00 0.00 31 1015.6
20260506090903 78 170 1.0 7.0 0.00 0.00 0.00 32 1015.6
20260506090803 78 168 1.0 7.0 0.00 0.00 0.00 31 1015.5
20260506090703 78 167 1.0 7.0 0.00 0.00 0.00 31 1015.5
20260506090603 78 167 1.0 7.0 0.00 0.00 0.00 31 1015.6
20260506090503 78 166 1.0 7.0 0.00 0.00 0.00 32 1015.7
20260506090403 78 167 1.0 7.0 0.00 0.00 0.00 32 1015.6
20260506090303 78 167 1.0 7.0 0.00 0.00 0.00 32 1015.8
20260506090203 78 171 1.0 7.0 0.00 0.00 0.00 31 1015.6
20260506090103 78 171 1.0 7.0 0.00 0.00 0.00 32 1015.6
20260506090024 78 183 1.0 7.0 0.00 0.00 0.00 32 1015.5
20260506085903 78 192 1.0 7.0 0.00 0.00 0.00 31 1015.4
20260506085803 78 193 1.0 7.0 0.00 0.00 0.00 32 1015.4
20260506085703 78 186 1.0 7.0 0.00 0.00 0.00 31 1015.6
20260506085603 78 188 1.0 7.0 0.00 0.00 0.00 32 1015.7
20260506085503 78 196 1.0 7.0 0.00 0.00 0.00 32 1015.5
20260506085424 78 203 1.0 6.0 0.00 0.00 0.00 32 1015.5
20260506085305 78 201 1.0 6.0 0.00 0.00 0.00 33 1015.6
20260506085224 78 203 1.0 6.0 0.00 0.00 0.00 32 1015.5
20260506085103 78 203 1.0 6.0 0.00 0.00 0.00 32 1015.6
20260506085003 77 194 1.0 6.0 0.00 0.00 0.00 33 1015.5
20260506084903 77 194 1.0 6.0 0.00 0.00 0.00 32 1015.7
20260506084803 77 193 1.0 6.0 0.00 0.00 0.00 34 1015.6
20260506084703 76 197 1.0 6.0 0.00 0.00 0.00 33 1015.5
20260506084603 76 196 1.0 6.0 0.00 0.00 0.00 33 1015.6
20260506084503 77 194 1.0 6.0 0.00 0.00 0.00 34 1015.4
20260506084424 77 189 1.0 6.0 0.00 0.00 0.00 33 1015.4
20260506084303 77 186 1.0 6.0 0.00 0.00 0.00 32 1015.7
20260506084203 77 183 1.0 6.0 0.00 0.00 0.00 33 1015.6
20260506084103 77 183 1.0 6.0 0.00 0.00 0.00 33 1015.5
20260506084003 77 184 1.0 6.0 0.00 0.00 0.00 33 1015.5
20260506083924 77 184 1.0 6.0 0.00 0.00 0.00 32 1015.5
20260506083803 77 174 1.0 4.0 0.00 0.00 0.00 32 1015.6
20260506083703 77 176 1.0 6.0 0.00 0.00 0.00 34 1015.7
20260506083603 77 180 1.0 6.0 0.00 0.00 0.00 34 1015.5
20260506083503 77 178 1.0 7.0 0.00 0.00 0.00 35 1015.7
20260506083403 76 180 1.0 7.0 0.00 0.00 0.00 34 1015.6
20260506083324 76 181 1.0 7.0 0.00 0.00 0.00 35 1015.6
20260506083203 76 179 1.0 7.0 0.00 0.00 0.00 35 1015.4
20260506083103 76 179 1.0 7.0 0.00 0.00 0.00 35 1015.6
20260506083003 76 178 1.0 7.0 0.00 0.00 0.00 35 1015.6
20260506082903 75 179 1.0 7.0 0.00 0.00 0.00 35 1015.7
20260506082803 75 181 1.0 7.0 0.00 0.00 0.00 36 1015.7
20260506082703 76 178 1.0 7.0 0.00 0.00 0.00 36 1015.6
20260506082603 76 174 1.0 7.0 0.00 0.00 0.00 35 1015.4
20260506082503 76 174 1.0 4.0 0.00 0.00 0.00 35 1015.3
20260506082403 76 171 1.0 4.0 0.00 0.00 0.00 35 1015.8
20260506082305 76 169 0.0 4.0 0.00 0.00 0.00 35 1015.6
20260506082203 76 168 1.0 4.0 0.00 0.00 0.00 36 1015.6
20260506082103 76 169 1.0 6.0 0.00 0.00 0.00 35 1015.6
20260506082003 76 169 1.0 6.0 0.00 0.00 0.00 36 1015.5
20260506081924 76 170 1.0 6.0 0.00 0.00 0.00 35 1015.8
20260506081803 76 165 1.0 6.0 0.00 0.00 0.00 35 1015.6
20260506081724 76 164 1.0 6.0 0.00 0.00 0.00 35 1015.6
20260506081603 76 170 1.0 6.0 0.00 0.00 0.00 35 1015.7
20260506081503 75 171 1.0 6.0 0.00 0.00 0.00 37 1015.6
20260506081403 75 170 1.0 6.0 0.00 0.00 0.00 36 1015.6
20260506081303 75 169 1.0 6.0 0.00 0.00 0.00 37 1015.6
20260506081203 75 169 1.0 6.0 0.00 0.00 0.00 36 1015.8
20260506081103 75 167 1.0 6.0 0.00 0.00 0.00 36 1015.7
20260506081003 75 167 1.0 6.0 0.00 0.00 0.00 37 1015.7
20260506080903 75 170 1.0 6.0 0.00 0.00 0.00 37 1015.7
20260506080804 75 171 1.0 6.0 0.00 0.00 0.00 36 1015.7
20260506080703 75 174 1.0 6.0 0.00 0.00 0.00 37 1015.7
20260506080603 75 170 1.0 6.0 0.00 0.00 0.00 36 1015.6
20260506080503 75 173 1.0 6.0 0.00 0.00 0.00 37 1015.8
20260506080403 74 179 1.0 4.0 0.00 0.00 0.00 37 1015.7
20260506080303 74 181 1.0 4.0 0.00 0.00 0.00 37 1015.7
20260506080203 74 184 1.0 4.0 0.00 0.00 0.00 38 1015.8
20260506080124 74 189 1.0 4.0 0.00 0.00 0.00 38 1015.7
20260506073524 72 180 1.0 4.0 0.00 0.00 0.00 42 1015.7
20260506073403 72 180 1.0 6.0 0.00 0.00 0.00 41 1015.6
20260506073303 72 183 1.0 6.0 0.00 0.00 0.00 41 1015.8
20260506073203 72 187 1.0 6.0 0.00 0.00 0.00 40 1015.8
20260506073103 72 184 1.0 8.0 0.00 0.00 0.00 41 1015.7
20260506073003 71 186 1.0 8.0 0.00 0.00 0.00 41 1015.6
20260506072903 71 186 1.0 8.0 0.00 0.00 0.00 41 1015.6
20260506072824 71 184 1.0 8.0 0.00 0.00 0.00 41 1015.9
20260506072703 71 184 1.0 8.0 0.00 0.00 0.00 41 1015.8
20260506072603 71 185 1.0 8.0 0.00 0.00 0.00 41 1015.8
20260506072503 71 179 1.0 8.0 0.00 0.00 0.00 42 1015.6
20260506072403 71 181 1.0 8.0 0.00 0.00 0.00 42 1015.6
20260506072305 71 181 1.0 8.0 0.00 0.00 0.00 42 1015.8
20260506072203 72 185 1.0 8.0 0.00 0.00 0.00 42 1015.8
20260506072103 72 201 1.0 6.0 0.00 0.00 0.00 41 1015.6
20260506072003 71 203 1.0 6.0 0.00 0.00 0.00 42 1015.7
20260506071903 71 203 0.0 6.0 0.00 0.00 0.00 42 1016.0
20260506071803 71 214 0.0 6.0 0.00 0.00 0.00 43 1015.7
20260506071703 71 212 0.0 6.0 0.00 0.00 0.00 43 1015.7
20260506071603 70 203 0.0 6.0 0.00 0.00 0.00 43 1015.8
20260506071503 70 203 0.0 6.0 0.00 0.00 0.00 44 1015.6
20260506071424 70 202 0.0 6.0 0.00 0.00 0.00 44 1015.8
20260506071324 70 200 0.0 6.0 0.00 0.00 0.00 44 1015.9
20260506071224 70 196 0.0 6.0 0.00 0.00 0.00 43 1015.8
20260506071103 70 171 0.0 3.0 0.00 0.00 0.00 43 1015.8
20260506071003 70 181 0.0 4.0 0.00 0.00 0.00 44 1015.6
20260506070903 69 190 1.0 4.0 0.00 0.00 0.00 44 1015.9
20260506070803 69 193 1.0 4.0 0.00 0.00 0.00 45 1015.7
20260506070703 69 196 1.0 4.0 0.00 0.00 0.00 45 1015.8
20260506070624 69 197 1.0 4.0 0.00 0.00 0.00 45 1015.9
20260506070503 68 198 1.0 4.0 0.00 0.00 0.00 45 1015.9
20260506070403 68 200 1.0 4.0 0.00 0.00 0.00 45 1015.7
20260506070303 68 201 1.0 4.0 0.00 0.00 0.00 45 1015.8
20260506070226 68 198 1.0 4.0 0.00 0.00 0.00 46 1015.7
20260506070103 68 200 1.0 4.0 0.00 0.00 0.00 46 1015.9
20260506062503 66 183 1.0 6.0 0.00 0.00 0.00 48 1015.9
20260506062403 66 188 1.0 6.0 0.00 0.00 0.00 48 1015.8
20260506062324 66 185 1.0 6.0 0.00 0.00 0.00 48 1015.7
20260506062203 66 184 1.0 6.0 0.00 0.00 0.00 49 1015.8
20260506062103 66 185 0.0 6.0 0.00 0.00 0.00 48 1015.6
20260506062003 66 182 0.0 4.0 0.00 0.00 0.00 49 1015.9
20260506061903 66 178 0.0 4.0 0.00 0.00 0.00 48 1015.8
20260506061803 66 174 1.0 4.0 0.00 0.00 0.00 48 1015.8
20260506061703 66 181 1.0 6.0 0.00 0.00 0.00 48 1015.9
20260506061603 66 183 1.0 6.0 0.00 0.00 0.00 49 1016.0
20260506061524 66 186 1.0 6.0 0.00 0.00 0.00 49 1015.6
20260506061403 66 185 1.0 6.0 0.00 0.00 0.00 48 1015.8
20260506061303 65 192 1.0 6.0 0.00 0.00 0.00 50 1015.8
20260506061203 65 198 1.0 6.0 0.00 0.00 0.00 49 1015.8
20260506061124 65 197 1.0 6.0 0.00 0.00 0.00 49 1015.8
20260506061003 65 196 1.0 6.0 0.00 0.00 0.00 50 1015.8
20260506060924 65 197 1.0 6.0 0.00 0.00 0.00 50 1015.8
20260506060803 65 209 1.0 6.0 0.00 0.00 0.00 49 1015.9
20260506060703 64 208 1.0 6.0 0.00 0.00 0.00 51 1015.9
20260506060603 64 207 1.0 6.0 0.00 0.00 0.00 50 1015.8
20260506060503 64 208 1.0 6.0 0.00 0.00 0.00 51 1015.8
20260506060403 64 212 1.0 6.0 0.00 0.00 0.00 50 1015.8
20260506060303 64 213 1.0 6.0 0.00 0.00 0.00 50 1015.6
20260506060203 64 206 0.0 6.0 0.00 0.00 0.00 51 1015.8
20260506051403 61 172 1.0 6.0 0.00 0.00 0.00 54 1015.8
20260506051303 61 176 1.0 7.0 0.00 0.00 0.00 54 1015.8
20260506051203 61 180 1.0 7.0 0.00 0.00 0.00 55 1015.7
20260506051124 61 182 1.0 7.0 0.00 0.00 0.00 55 1015.6
20260506051003 61 190 1.0 7.0 0.00 0.00 0.00 55 1015.7
20260506050903 61 186 1.0 7.0 0.00 0.00 0.00 55 1015.7
20260506050803 60 185 1.0 7.0 0.00 0.00 0.00 56 1015.8
20260506050703 60 185 1.0 7.0 0.00 0.00 0.00 55 1015.8
20260506050603 60 184 1.0 7.0 0.00 0.00 0.00 56 1015.7
20260506050503 60 184 1.0 7.0 0.00 0.00 0.00 56 1015.4
20260506050403 60 184 1.0 7.0 0.00 0.00 0.00 56 1015.5
20260506050324 60 185 1.0 7.0 0.00 0.00 0.00 56 1015.5
20260506050203 60 179 1.0 6.0 0.00 0.00 0.00 56 1015.6
20260506050103 60 173 0.0 6.0 0.00 0.00 0.00 56 1015.6
20260506045103 59 171 1.0 6.0 0.00 0.00 0.00 58 1015.5
20260506045003 58 172 1.0 6.0 0.00 0.00 0.00 59 1015.7
20260506044903 58 172 1.0 6.0 0.00 0.00 0.00 59 1015.6
20260506044803 58 175 1.0 6.0 0.00 0.00 0.00 58 1015.7
20260506044703 58 182 1.0 6.0 0.00 0.00 0.00 59 1015.3
20260506044603 58 182 1.0 6.0 0.00 0.00 0.00 58 1015.4
20260506044503 58 187 1.0 6.0 0.00 0.00 0.00 59 1015.5
20260506044403 58 185 0.0 4.0 0.00 0.00 0.00 59 1015.5
20260506044303 58 187 0.0 4.0 0.00 0.00 0.00 59 1015.5
20260506044224 58 188 0.0 4.0 0.00 0.00 0.00 59 1015.6
20260506044103 58 188 0.0 4.0 0.00 0.00 0.00 59 1015.5
20260506044003 57 196 0.0 3.0 0.00 0.00 0.00 59 1015.5
20260506043903 57 196 0.0 3.0 0.00 0.00 0.00 60 1015.3
20260506043803 58 204 0.0 3.0 0.00 0.00 0.00 59 1015.6
20260506043724 58 184 0.0 3.0 0.00 0.00 0.00 59 1015.6
20260506043603 58 175 0.0 3.0 0.00 0.00 0.00 59 1015.3
20260506043503 58 172 0.0 3.0 0.00 0.00 0.00 58 1015.5
20260506043403 58 170 0.0 3.0 0.00 0.00 0.00 58 1015.2
20260506043303 58 170 0.0 3.0 0.00 0.00 0.00 58 1015.4
20260506043203 57 170 0.0 3.0 0.00 0.00 0.00 59 1015.7
20260506043103 57 170 0.0 3.0 0.00 0.00 0.00 60 1015.4
20260506043003 57 170 0.0 3.0 0.00 0.00 0.00 61 1015.3
20260506042903 57 170 0.0 3.0 0.00 0.00 0.00 60 1015.4
20260506042803 57 170 0.0 3.0 0.00 0.00 0.00 60 1015.4
20260506042724 57 172 0.0 3.0 0.00 0.00 0.00 60 1015.5
20260506042624 57 0 0.0 0.0 0.00 0.00 0.00 60 1015.3
20260506042503 56 0 0.0 0.0 0.00 0.00 0.00 61 1015.6
20260506042404 56 0 0.0 0.0 0.00 0.00 0.00 61 1015.5
20260506042305 56 0 0.0 0.0 0.00 0.00 0.00 61 1015.4
20260506042203 56 0 0.0 0.0 0.00 0.00 0.00 61 1015.5
20260506042103 56 0 0.0 0.0 0.00 0.00 0.00 61 1015.5
20260506042003 56 0 0.0 0.0 0.00 0.00 0.00 62 1015.5
20260506041903 56 0 0.0 0.0 0.00 0.00 0.00 62 1015.4
20260506041803 56 0 0.0 0.0 0.00 0.00 0.00 62 1015.5
20260506041724 56 0 0.0 0.0 0.00 0.00 0.00 61 1015.5
20260506041603 56 0 0.0 0.0 0.00 0.00 0.00 62 1015.4
20260506041524 56 0 0.0 0.0 0.00 0.00 0.00 62 1015.4
20260506041403 55 0 0.0 0.0 0.00 0.00 0.00 62 1015.3
20260506041303 55 0 0.0 0.0 0.00 0.00 0.00 63 1015.4
20260506041203 55 0 0.0 0.0 0.00 0.00 0.00 62 1015.3
20260506041104 55 0 0.0 0.0 0.00 0.00 0.00 63 1015.4
20260506041003 55 0 0.0 0.0 0.00 0.00 0.00 63 1015.3
20260506040924 55 0 0.0 0.0 0.00 0.00 0.00 63 1015.5
20260506040803 54 0 0.0 0.0 0.00 0.00 0.00 63 1015.3
20260506040724 54 0 0.0 0.0 0.00 0.00 0.00 63 1015.3
20260506040603 54 0 0.0 0.0 0.00 0.00 0.00 63 1015.4
20260506040503 54 0 0.0 0.0 0.00 0.00 0.00 63 1015.4
20260506040403 54 0 0.0 0.0 0.00 0.00 0.00 63 1015.4
20260506040303 54 0 0.0 0.0 0.00 0.00 0.00 64 1015.2
20260506040203 54 0 0.0 0.0 0.00 0.00 0.00 64 1015.4
20260506040124 54 0 0.0 0.0 0.00 0.00 0.00 64 1015.3
20260506040003 53 0 0.0 0.0 0.00 0.00 0.00 65 1015.4
20260506035903 53 0 0.0 0.0 0.00 0.00 0.00 65 1015.3
20260506035803 53 163 0.0 1.0 0.00 0.00 0.00 65 1015.3
20260506035703 53 163 0.0 1.0 0.00 0.00 0.00 65 1015.2
20260506035603 53 163 0.0 1.0 0.00 0.00 0.00 65 1015.4
20260506035524 52 163 0.0 1.0 0.00 0.00 0.00 66 1015.1
20260506035403 52 163 0.0 1.0 0.00 0.00 0.00 67 1015.4
20260506035305 52 163 0.0 1.0 0.00 0.00 0.00 67 1015.3
20260506035203 52 163 0.0 1.0 0.00 0.00 0.00 67 1015.3
20260506035124 52 163 0.0 1.0 0.00 0.00 0.00 68 1015.3
20260506035003 52 163 0.0 1.0 0.00 0.00 0.00 68 1015.2
20260506034903 51 163 0.0 1.0 0.00 0.00 0.00 68 1015.2
20260506034803 51 0 0.0 0.0 0.00 0.00 0.00 68 1015.5
20260506034703 51 0 0.0 0.0 0.00 0.00 0.00 69 1015.2
20260506034603 51 0 0.0 0.0 0.00 0.00 0.00 69 1015.1
20260506034503 51 0 0.0 0.0 0.00 0.00 0.00 69 1015.2
20260506034403 51 0 0.0 0.0 0.00 0.00 0.00 69 1015.3
20260506034303 51 0 0.0 0.0 0.00 0.00 0.00 69 1015.3
20260506034203 51 0 0.0 0.0 0.00 0.00 0.00 69 1015.2
20260506034103 51 0 0.0 0.0 0.00 0.00 0.00 69 1015.2
20260506034003 50 0 0.0 0.0 0.00 0.00 0.00 69 1015.3
20260506033903 50 0 0.0 0.0 0.00 0.00 0.00 70 1015.1
20260506033803 50 0 0.0 0.0 0.00 0.00 0.00 70 1015.0
20260506033724 50 0 0.0 0.0 0.00 0.00 0.00 70 1015.2
20260506033603 49 0 0.0 0.0 0.00 0.00 0.00 71 1015.2
20260506033503 49 0 0.0 0.0 0.00 0.00 0.00 72 1015.2
20260506033403 49 0 0.0 0.0 0.00 0.00 0.00 73 1015.1
20260506033303 49 0 0.0 0.0 0.00 0.00 0.00 73 1015.0
20260506033203 48 0 0.0 0.0 0.00 0.00 0.00 73 1015.1
20260506033103 48 0 0.0 0.0 0.00 0.00 0.00 73 1015.2
20260506033024 48 0 0.0 0.0 0.00 0.00 0.00 73 1015.1
20260506032924 48 0 0.0 0.0 0.00 0.00 0.00 74 1015.2
20260506032803 48 0 0.0 0.0 0.00 0.00 0.00 74 1015.0
20260506032703 48 0 0.0 0.0 0.00 0.00 0.00 74 1014.9
20260506032603 48 0 0.0 0.0 0.00 0.00 0.00 75 1015.1
20260506032503 47 0 0.0 0.0 0.00 0.00 0.00 75 1015.1
20260506032403 47 0 0.0 0.0 0.00 0.00 0.00 75 1015.1
20260506032305 47 0 0.0 0.0 0.00 0.00 0.00 75 1015.0
20260506032203 47 0 0.0 0.0 0.00 0.00 0.00 75 1015.2
20260506032103 47 0 0.0 0.0 0.00 0.00 0.00 75 1015.2
20260506032003 47 0 0.0 0.0 0.00 0.00 0.00 75 1015.1
20260506031924 47 0 0.0 0.0 0.00 0.00 0.00 75 1015.1
20260506031824 47 0 0.0 0.0 0.00 0.00 0.00 75 1015.0
20260506031724 47 0 0.0 0.0 0.00 0.00 0.00 76 1015.1
20260506031603 47 0 0.0 0.0 0.00 0.00 0.00 76 1014.8
20260506031524 47 0 0.0 0.0 0.00 0.00 0.00 76 1014.9
20260506031403 47 0 0.0 0.0 0.00 0.00 0.00 76 1015.0
20260506031303 47 0 0.0 0.0 0.00 0.00 0.00 76 1015.0
20260506031203 46 0 0.0 0.0 0.00 0.00 0.00 76 1014.9
20260506031103 46 0 0.0 0.0 0.00 0.00 0.00 76 1015.0
20260506031003 46 0 0.0 0.0 0.00 0.00 0.00 76 1014.9
20260506030924 46 0 0.0 0.0 0.00 0.00 0.00 76 1014.9
20260506030804 46 0 0.0 0.0 0.00 0.00 0.00 76 1015.1
20260506030703 46 0 0.0 0.0 0.00 0.00 0.00 76 1014.8
20260506030603 46 0 0.0 0.0 0.00 0.00 0.00 76 1014.7
20260506030503 46 0 0.0 0.0 0.00 0.00 0.00 76 1014.8
20260506030403 46 0 0.0 0.0 0.00 0.00 0.00 76 1014.8
20260506030303 46 0 0.0 0.0 0.00 0.00 0.00 76 1014.7
20260506030203 46 0 0.0 0.0 0.00 0.00 0.00 76 1014.8
20260506030103 46 0 0.0 0.0 0.00 0.00 0.00 76 1014.7
20260506030003 46 0 0.0 0.0 0.00 0.00 0.00 76 1014.9
20260506025903 46 0 0.0 0.0 0.00 0.00 0.00 76 1014.8
20260506025803 46 0 0.0 0.0 0.00 0.00 0.00 76 1014.8
20260506025703 46 0 0.0 0.0 0.00 0.00 0.00 76 1014.7
20260506025603 46 0 0.0 0.0 0.00 0.00 0.00 76 1014.6
20260506025524 46 0 0.0 0.0 0.00 0.00 0.00 76 1014.8
20260506025403 46 0 0.0 0.0 0.00 0.00 0.00 76 1014.7
20260506025305 46 0 0.0 0.0 0.00 0.00 0.00 76 1014.9
20260506025203 46 0 0.0 0.0 0.00 0.00 0.00 76 1015.0
20260506025103 46 0 0.0 0.0 0.00 0.00 0.00 75 1014.9
20260506025024 46 0 0.0 0.0 0.00 0.00 0.00 76 1015.0
20260506024903 46 0 0.0 0.0 0.00 0.00 0.00 76 1014.9
20260506024803 46 0 0.0 0.0 0.00 0.00 0.00 75 1014.8
20260506024703 46 0 0.0 0.0 0.00 0.00 0.00 75 1014.8
20260506024603 46 0 0.0 0.0 0.00 0.00 0.00 75 1014.8
20260506024503 46 0 0.0 0.0 0.00 0.00 0.00 76 1014.7
20260506024403 46 0 0.0 0.0 0.00 0.00 0.00 76 1014.8
20260506024303 46 0 0.0 0.0 0.00 0.00 0.00 76 1014.7
20260506024203 46 0 0.0 0.0 0.00 0.00 0.00 76 1014.9
20260506024104 46 0 0.0 0.0 0.00 0.00 0.00 76 1014.8
20260506024003 46 0 0.0 0.0 0.00 0.00 0.00 76 1014.7
20260506023903 46 0 0.0 0.0 0.00 0.00 0.00 76 1014.9
20260506023803 46 0 0.0 0.0 0.00 0.00 0.00 76 1014.7
20260506023703 46 0 0.0 0.0 0.00 0.00 0.00 76 1014.8
20260506023603 46 0 0.0 0.0 0.00 0.00 0.00 76 1014.7
20260506023503 46 0 0.0 0.0 0.00 0.00 0.00 76 1014.8
20260506023403 46 0 0.0 0.0 0.00 0.00 0.00 75 1014.9
20260506023303 46 0 0.0 0.0 0.00 0.00 0.00 75 1014.7
20260506023203 46 0 0.0 0.0 0.00 0.00 0.00 75 1014.6
20260506023103 46 0 0.0 0.0 0.00 0.00 0.00 75 1014.6
20260506023003 46 0 0.0 0.0 0.00 0.00 0.00 74 1015.0
20260506022924 47 0 0.0 0.0 0.00 0.00 0.00 74 1014.8
20260506022803 47 0 0.0 0.0 0.00 0.00 0.00 74 1014.6
20260506022703 47 0 0.0 0.0 0.00 0.00 0.00 74 1014.7
20260506022603 47 0 0.0 0.0 0.00 0.00 0.00 74 1014.8
20260506022503 47 0 0.0 0.0 0.00 0.00 0.00 74 1014.6
20260506022403 47 0 0.0 0.0 0.00 0.00 0.00 75 1014.6
20260506022305 46 0 0.0 0.0 0.00 0.00 0.00 75 1014.7
20260506022203 46 0 0.0 0.0 0.00 0.00 0.00 75 1014.7
20260506022103 46 0 0.0 0.0 0.00 0.00 0.00 75 1014.7
20260506022024 46 0 0.0 0.0 0.00 0.00 0.00 74 1014.6
20260506021903 46 0 0.0 0.0 0.00 0.00 0.00 74 1014.6
20260506021803 46 0 0.0 0.0 0.00 0.00 0.00 74 1014.3
20260506021703 46 0 0.0 0.0 0.00 0.00 0.00 74 1014.6
20260506021603 47 0 0.0 0.0 0.00 0.00 0.00 74 1014.7
20260506021524 47 0 0.0 0.0 0.00 0.00 0.00 74 1014.6
20260506021403 47 0 0.0 0.0 0.00 0.00 0.00 74 1014.6
20260506021303 47 0 0.0 0.0 0.00 0.00 0.00 74 1014.4
20260506021203 47 0 0.0 0.0 0.00 0.00 0.00 74 1014.7
20260506021103 46 0 0.0 0.0 0.00 0.00 0.00 74 1014.4
20260506021003 47 0 0.0 0.0 0.00 0.00 0.00 74 1014.7
20260506020903 47 0 0.0 0.0 0.00 0.00 0.00 74 1014.4
20260506020803 47 0 0.0 0.0 0.00 0.00 0.00 74 1014.6
20260506020703 47 0 0.0 0.0 0.00 0.00 0.00 73 1014.4
20260506020603 47 0 0.0 0.0 0.00 0.00 0.00 73 1014.6
20260506020503 47 0 0.0 0.0 0.00 0.00 0.00 74 1014.7
20260506020403 47 0 0.0 0.0 0.00 0.00 0.00 74 1014.4
20260506020324 47 0 0.0 0.0 0.00 0.00 0.00 74 1014.6
20260506020203 47 0 0.0 0.0 0.00 0.00 0.00 74 1014.6
20260506020103 47 0 0.0 0.0 0.00 0.00 0.00 74 1014.7
20260506020024 47 0 0.0 0.0 0.00 0.00 0.00 73 1014.7
20260506015903 47 0 0.0 0.0 0.00 0.00 0.00 74 1014.7
20260506015803 47 0 0.0 0.0 0.00 0.00 0.00 73 1014.7
20260506015703 47 0 0.0 0.0 0.00 0.00 0.00 73 1014.7
20260506015603 47 0 0.0 0.0 0.00 0.00 0.00 73 1014.8
20260506015503 47 0 0.0 0.0 0.00 0.00 0.00 73 1014.7
20260506015403 47 0 0.0 0.0 0.00 0.00 0.00 73 1014.6
20260506015324 47 0 0.0 0.0 0.00 0.00 0.00 73 1014.7
20260506015224 47 0 0.0 0.0 0.00 0.00 0.00 73 1014.7
20260506015103 47 0 0.0 0.0 0.00 0.00 0.00 73 1014.4
20260506015003 47 0 0.0 0.0 0.00 0.00 0.00 73 1014.7
20260506014903 47 0 0.0 0.0 0.00 0.00 0.00 73 1014.4
20260506014803 47 0 0.0 0.0 0.00 0.00 0.00 73 1014.6
20260506014724 47 0 0.0 0.0 0.00 0.00 0.00 73 1014.6
20260506014603 47 0 0.0 0.0 0.00 0.00 0.00 73 1014.7
20260506014503 47 0 0.0 0.0 0.00 0.00 0.00 73 1014.3
20260506014403 47 0 0.0 0.0 0.00 0.00 0.00 72 1014.4
20260506014303 47 0 0.0 0.0 0.00 0.00 0.00 72 1014.7
20260506014203 47 0 0.0 0.0 0.00 0.00 0.00 72 1014.6
20260506014103 47 0 0.0 0.0 0.00 0.00 0.00 72 1014.7
20260506014003 47 0 0.0 0.0 0.00 0.00 0.00 72 1014.4
20260506013924 47 0 0.0 0.0 0.00 0.00 0.00 72 1014.4
20260506013803 47 0 0.0 0.0 0.00 0.00 0.00 72 1014.8
20260506013724 47 0 0.0 0.0 0.00 0.00 0.00 72 1014.6
20260506013624 48 0 0.0 0.0 0.00 0.00 0.00 72 1014.4
20260506013524 48 0 0.0 0.0 0.00 0.00 0.00 72 1014.7
20260506013403 48 0 0.0 0.0 0.00 0.00 0.00 71 1014.4
20260506013303 48 0 0.0 0.0 0.00 0.00 0.00 71 1014.7
20260506013203 48 0 0.0 0.0 0.00 0.00 0.00 71 1014.7
20260506013103 48 0 0.0 0.0 0.00 0.00 0.00 71 1014.4
20260506013003 48 0 0.0 0.0 0.00 0.00 0.00 70 1014.6
20260506012903 49 0 0.0 0.0 0.00 0.00 0.00 70 1014.4
20260506012803 49 0 0.0 0.0 0.00 0.00 0.00 70 1014.7
20260506012703 49 0 0.0 0.0 0.00 0.00 0.00 70 1014.4
20260506012603 49 0 0.0 0.0 0.00 0.00 0.00 70 1014.6
20260506012503 49 0 0.0 0.0 0.00 0.00 0.00 69 1014.3
20260506012403 49 0 0.0 0.0 0.00 0.00 0.00 69 1014.7
20260506012307 49 0 0.0 0.0 0.00 0.00 0.00 69 1014.4
20260506012203 49 0 0.0 0.0 0.00 0.00 0.00 70 1014.6
20260506012103 49 0 0.0 0.0 0.00 0.00 0.00 70 1014.7
20260506012024 49 0 0.0 0.0 0.00 0.00 0.00 70 1014.7
20260506011903 49 0 0.0 0.0 0.00 0.00 0.00 70 1014.4
20260506011803 49 0 0.0 0.0 0.00 0.00 0.00 70 1014.3
20260506011703 49 0 0.0 0.0 0.00 0.00 0.00 69 1014.6
20260506011603 49 0 0.0 0.0 0.00 0.00 0.00 70 1014.9
20260506011524 49 0 0.0 0.0 0.00 0.00 0.00 69 1014.4
20260506011403 49 0 0.0 0.0 0.00 0.00 0.00 69 1014.6
20260506011303 49 0 0.0 0.0 0.00 0.00 0.00 69 1014.6
20260506011203 49 0 0.0 0.0 0.00 0.00 0.00 68 1014.4
20260506011103 49 0 0.0 0.0 0.00 0.00 0.00 68 1014.4
20260506011003 49 0 0.0 0.0 0.00 0.00 0.00 67 1014.4
20260506010924 50 0 0.0 0.0 0.00 0.00 0.00 67 1014.2
20260506010803 50 0 0.0 0.0 0.00 0.00 0.00 67 1014.4
20260506010703 50 0 0.0 0.0 0.00 0.00 0.00 67 1014.4
20260506010624 50 0 0.0 0.0 0.00 0.00 0.00 67 1014.4
20260506010503 50 0 0.0 0.0 0.00 0.00 0.00 67 1014.2
20260506010403 50 0 0.0 0.0 0.00 0.00 0.00 67 1014.3
20260506010303 50 0 0.0 0.0 0.00 0.00 0.00 66 1014.2
20260506010203 50 0 0.0 0.0 0.00 0.00 0.00 66 1014.6
20260506010103 51 0 0.0 0.0 0.00 0.00 0.00 66 1014.3
20260506010003 51 0 0.0 0.0 0.00 0.00 0.00 65 1014.4
20260506005903 51 0 0.0 0.0 0.00 0.00 0.00 65 1014.2
20260506005803 51 0 0.0 0.0 0.00 0.00 0.00 64 1014.3
20260506005703 51 0 0.0 0.0 0.00 0.00 0.00 64 1014.2
20260506005603 51 0 0.0 0.0 0.00 0.00 0.00 64 1014.2
20260506005503 51 0 0.0 0.0 0.00 0.00 0.00 64 1014.2
20260506005403 51 0 0.0 0.0 0.00 0.00 0.00 64 1014.6
20260506005305 52 0 0.0 0.0 0.00 0.00 0.00 64 1014.1
20260506005203 52 0 0.0 0.0 0.00 0.00 0.00 63 1014.6
20260506005103 52 0 0.0 0.0 0.00 0.00 0.00 63 1014.3
20260506005003 52 0 0.0 0.0 0.00 0.00 0.00 63 1014.3
20260506004903 52 0 0.0 0.0 0.00 0.00 0.00 63 1014.4
20260506004805 52 0 0.0 0.0 0.00 0.00 0.00 63 1014.1
20260506004704 53 0 0.0 0.0 0.00 0.00 0.00 62 1014.2
20260506004604 53 0 0.0 0.0 0.00 0.00 0.00 62 1014.1
20260506004505 53 0 0.0 0.0 0.00 0.00 0.00 62 1014.4
20260506004404 53 0 0.0 0.0 0.00 0.00 0.00 62 1014.4
20260506004304 53 0 0.0 0.0 0.00 0.00 0.00 62 1014.2
20260506004225 53 0 0.0 0.0 0.00 0.00 0.00 61 1014.3
20260506004104 53 0 0.0 0.0 0.00 0.00 0.00 61 1014.3
20260506004004 53 0 0.0 0.0 0.00 0.00 0.00 61 1014.2
20260506003904 53 0 0.0 0.0 0.00 0.00 0.00 61 1014.3
20260506003804 53 0 0.0 0.0 0.00 0.00 0.00 61 1014.3
20260506003704 53 166 0.0 1.0 0.00 0.00 0.00 61 1014.2
20260506003604 53 183 0.0 1.0 0.00 0.00 0.00 61 1014.4
20260506003504 53 183 0.0 1.0 0.00 0.00 0.00 60 1014.3
20260506003425 53 183 0.0 1.0 0.00 0.00 0.00 60 1014.4
20260506003304 54 183 0.0 1.0 0.00 0.00 0.00 60 1014.4
20260506003204 54 183 0.0 1.0 0.00 0.00 0.00 60 1014.1
20260506003104 54 183 0.0 1.0 0.00 0.00 0.00 60 1014.6
20260506003025 54 183 0.0 1.0 0.00 0.00 0.00 60 1014.1
20260506002904 54 183 0.0 1.0 0.00 0.00 0.00 59 1014.1
20260506002804 54 183 0.0 1.0 0.00 0.00 0.00 59 1014.4
20260506002704 54 187 0.0 1.0 0.00 0.00 0.00 59 1014.0
20260506002604 54 0 0.0 0.0 0.00 0.00 0.00 59 1014.3
20260506002504 54 185 0.0 1.0 0.00 0.00 0.00 59 1014.0
20260506002404 54 185 0.0 1.0 0.00 0.00 0.00 59 1014.3
20260506002306 54 185 0.0 1.0 0.00 0.00 0.00 59 1014.1
20260506002225 54 185 0.0 1.0 0.00 0.00 0.00 58 1014.2
20260506002104 55 185 0.0 1.0 0.00 0.00 0.00 58 1014.3
20260506002004 55 185 0.0 1.0 0.00 0.00 0.00 58 1014.2
20260506001904 55 185 0.0 1.0 0.00 0.00 0.00 58 1014.1
20260506001804 55 185 0.0 1.0 0.00 0.00 0.00 57 1014.1
20260506001704 55 185 0.0 1.0 0.00 0.00 0.00 57 1014.2
20260506001604 54 185 0.0 1.0 0.00 0.00 0.00 57 1014.1
20260506001504 54 0 0.0 0.0 0.00 0.00 0.00 58 1014.2
20260506001404 54 0 0.0 0.0 0.00 0.00 0.00 58 1014.3
20260506001304 54 0 0.0 0.0 0.00 0.00 0.00 58 1014.1
20260506001204 54 0 0.0 0.0 0.00 0.00 0.00 58 1014.2
20260506001104 54 0 0.0 0.0 0.00 0.00 0.00 57 1014.2
20260506001004 55 178 0.0 1.0 0.00 0.00 0.00 57 1014.1
20260506000904 55 178 0.0 1.0 0.00 0.00 0.00 57 1014.2
20260506000804 55 178 0.0 1.0 0.00 0.00 0.00 56 1014.0
20260506000704 55 178 0.0 1.0 0.00 0.00 0.00 56 1014.1
20260506000605 55 178 0.0 1.0 0.00 0.00 0.00 56 1014.2
20260506000504 55 178 0.0 1.0 0.00 0.00 0.00 56 1014.2
20260506000404 56 178 0.0 1.0 0.00 0.00 0.00 56 1014.1
20260506000304 56 178 0.0 1.0 0.00 0.00 0.00 55 1014.1
20260506000205 56 178 0.0 1.0 0.00 0.00 0.00 55 1014.1
20260506000104 56 178 0.0 1.0 0.00 0.00 0.00 55 1014.1
20260506000004 56 182 0.0 1.0 0.00 0.00 0.00 55 1014.0
20260505235904 56 184 0.0 1.0 0.00 0.00 0.00 55 1014.1
20260505235804 56 184 0.0 1.0 0.00 0.00 0.00 55 1014.1
20260505235704 56 184 0.0 1.0 0.00 0.00 0.00 55 1014.2
20260505235604 56 184 0.0 1.0 0.00 0.00 0.00 55 1014.0
20260505235504 56 184 0.0 1.0 0.00 0.00 0.00 54 1014.0
20260505235425 56 184 0.0 1.0 0.00 0.00 0.00 54 1014.1
20260505235305 56 184 0.0 1.0 0.00 0.00 0.00 54 1014.0
20260505235204 56 184 0.0 1.0 0.00 0.00 0.00 54 1014.0
20260505235104 56 196 0.0 1.0 0.00 0.00 0.00 54 1014.0
20260505235004 56 0 0.0 0.0 0.00 0.00 0.00 54 1014.1
20260505234904 56 153 0.0 1.0 0.00 0.00 0.00 54 1013.9
20260505234804 56 158 0.0 2.0 0.00 0.00 0.00 54 1014.0
20260505234704 56 173 0.0 2.0 0.00 0.00 0.00 54 1014.0
20260505234604 56 173 0.0 2.0 0.00 0.00 0.00 54 1014.1
20260505234504 56 173 0.0 2.0 0.00 0.00 0.00 54 1013.9
20260505234404 56 173 0.0 2.0 0.00 0.00 0.00 54 1014.1
20260505234304 56 173 0.0 2.0 0.00 0.00 0.00 54 1014.0
20260505234225 56 173 0.0 2.0 0.00 0.00 0.00 54 1014.0
20260505234104 56 172 0.0 2.0 0.00 0.00 0.00 54 1014.0
20260505234004 56 172 0.0 2.0 0.00 0.00 0.00 54 1013.9
20260505233904 56 177 0.0 2.0 0.00 0.00 0.00 53 1014.0
20260505233804 56 194 0.0 1.0 0.00 0.00 0.00 53 1014.1
20260505233704 56 185 0.0 1.0 0.00 0.00 0.00 53 1014.1
20260505233625 56 167 0.0 1.0 0.00 0.00 0.00 53 1014.1
20260505233504 56 167 0.0 1.0 0.00 0.00 0.00 53 1014.0
20260505233404 56 167 0.0 1.0 0.00 0.00 0.00 53 1014.0
20260505233304 56 167 0.0 1.0 0.00 0.00 0.00 53 1014.2
20260505233225 56 167 0.0 1.0 0.00 0.00 0.00 53 1014.0
20260505233104 56 175 0.0 1.0 0.00 0.00 0.00 53 1014.0
20260505233004 56 175 0.0 1.0 0.00 0.00 0.00 53 1014.0
20260505232905 56 196 0.0 2.0 0.00 0.00 0.00 53 1014.0
20260505232804 56 196 0.0 2.0 0.00 0.00 0.00 53 1014.0
20260505232704 57 190 0.0 2.0 0.00 0.00 0.00 53 1014.6
20260505232604 57 190 0.0 2.0 0.00 0.00 0.00 52 1014.2
20260505232504 57 190 0.0 2.0 0.00 0.00 0.00 52 1013.9
20260505232404 57 190 0.0 2.0 0.00 0.00 0.00 53 1014.2
20260505232305 57 190 0.0 2.0 0.00 0.00 0.00 53 1014.0
20260505232204 57 190 0.0 2.0 0.00 0.00 0.00 52 1013.9
20260505232104 57 195 0.0 2.0 0.00 0.00 0.00 53 1014.0
20260505232004 57 187 0.0 2.0 0.00 0.00 0.00 52 1014.0
20260505231904 57 165 0.0 1.0 0.00 0.00 0.00 52 1014.0
20260505231804 57 165 0.0 1.0 0.00 0.00 0.00 52 1014.1
20260505231704 57 161 0.0 1.0 0.00 0.00 0.00 52 1013.7
20260505231604 57 161 0.0 1.0 0.00 0.00 0.00 52 1013.9
20260505231504 57 164 0.0 1.0 0.00 0.00 0.00 52 1014.2
20260505231404 57 169 0.0 1.0 0.00 0.00 0.00 52 1013.8
20260505231304 57 187 0.0 1.0 0.00 0.00 0.00 52 1014.1
20260505231204 57 187 0.0 1.0 0.00 0.00 0.00 52 1014.1
20260505231125 57 187 0.0 1.0 0.00 0.00 0.00 52 1014.1
20260505231004 57 192 0.0 1.0 0.00 0.00 0.00 52 1014.0
20260505230926 57 194 0.0 1.0 0.00 0.00 0.00 52 1013.9
20260505230804 57 194 0.0 1.0 0.00 0.00 0.00 52 1014.0
20260505230704 57 194 0.0 1.0 0.00 0.00 0.00 52 1014.0
20260505230604 57 189 0.0 1.0 0.00 0.00 0.00 51 1014.0
20260505230525 57 189 0.0 1.0 0.00 0.00 0.00 51 1014.0
20260505230404 57 192 0.0 1.0 0.00 0.00 0.00 51 1014.0
20260505230304 57 181 0.0 1.0 0.00 0.00 0.00 52 1014.2
20260505230225 57 181 0.0 1.0 0.00 0.00 0.00 52 1014.1
20260505230104 57 181 0.0 1.0 0.00 0.00 0.00 51 1014.0
20260505230004 57 173 0.0 1.0 0.00 0.00 0.00 52 1014.1
20260505225904 57 170 0.0 1.0 0.00 0.00 0.00 51 1014.0
20260505225825 57 174 0.0 1.0 0.00 0.00 0.00 51 1014.2
20260505225705 57 174 0.0 1.0 0.00 0.00 0.00 51 1014.0
20260505225604 57 175 0.0 1.0 0.00 0.00 0.00 51 1014.1
20260505225504 58 175 0.0 1.0 0.00 0.00 0.00 51 1014.2
20260505225404 58 175 0.0 1.0 0.00 0.00 0.00 51 1014.0
20260505225306 58 178 0.0 1.0 0.00 0.00 0.00 51 1014.2
20260505225204 58 180 0.0 1.0 0.00 0.00 0.00 50 1014.0
20260505225125 58 180 0.0 1.0 0.00 0.00 0.00 50 1014.0
20260505225025 58 182 0.0 2.0 0.00 0.00 0.00 50 1014.2
20260505224904 58 178 0.0 2.0 0.00 0.00 0.00 50 1013.9
20260505224804 58 178 0.0 2.0 0.00 0.00 0.00 50 1014.1
20260505224704 58 176 0.0 2.0 0.00 0.00 0.00 50 1014.1
20260505224604 58 171 0.0 3.0 0.00 0.00 0.00 50 1014.0
20260505224504 58 171 0.0 3.0 0.00 0.00 0.00 49 1014.0
20260505224404 58 171 0.0 3.0 0.00 0.00 0.00 49 1014.1
20260505224304 58 169 0.0 3.0 0.00 0.00 0.00 49 1014.1
20260505224204 58 169 0.0 4.0 0.00 0.00 0.00 49 1014.1
20260505224104 58 169 0.0 4.0 0.00 0.00 0.00 49 1014.1
20260505224004 58 167 0.0 4.0 0.00 0.00 0.00 49 1014.2
20260505223904 59 167 0.0 4.0 0.00 0.00 0.00 49 1014.0
20260505223804 59 167 0.0 4.0 0.00 0.00 0.00 49 1014.2
20260505223704 59 167 0.0 4.0 0.00 0.00 0.00 49 1014.0
20260505223625 59 169 0.0 4.0 0.00 0.00 0.00 49 1014.1
20260505223504 59 170 0.0 4.0 0.00 0.00 0.00 49 1013.9
20260505223404 59 170 0.0 4.0 0.00 0.00 0.00 49 1014.1
20260505223304 59 171 0.0 4.0 0.00 0.00 0.00 49 1014.2
20260505223204 59 170 0.0 2.0 0.00 0.00 0.00 49 1013.9
20260505223104 59 168 0.0 2.0 0.00 0.00 0.00 49 1014.1
20260505223004 59 168 0.0 2.0 0.00 0.00 0.00 49 1014.2
20260505222904 59 164 0.0 2.0 0.00 0.00 0.00 49 1014.0
20260505222804 59 166 0.0 2.0 0.00 0.00 0.00 48 1014.0
20260505222704 59 169 0.0 2.0 0.00 0.00 0.00 48 1013.9
20260505222604 59 169 0.0 2.0 0.00 0.00 0.00 48 1013.9
20260505222504 59 170 0.0 2.0 0.00 0.00 0.00 48 1014.2
20260505222425 59 170 0.0 2.0 0.00 0.00 0.00 48 1014.0
20260505222306 59 169 0.0 2.0 0.00 0.00 0.00 48 1014.1
20260505222204 59 169 0.0 2.0 0.00 0.00 0.00 48 1013.9
20260505222104 59 171 0.0 2.0 0.00 0.00 0.00 48 1014.1
20260505222004 59 171 0.0 2.0 0.00 0.00 0.00 48 1013.9
20260505221904 59 174 0.0 2.0 0.00 0.00 0.00 48 1013.8
20260505221804 60 174 0.0 2.0 0.00 0.00 0.00 48 1014.0
20260505221704 60 170 0.0 3.0 0.00 0.00 0.00 48 1014.2
20260505221604 60 176 0.0 3.0 0.00 0.00 0.00 48 1014.0
20260505221525 60 176 0.0 3.0 0.00 0.00 0.00 48 1014.0
20260505221405 60 175 0.0 3.0 0.00 0.00 0.00 47 1014.2
20260505221304 60 174 0.0 3.0 0.00 0.00 0.00 47 1014.0
20260505221204 60 174 0.0 3.0 0.00 0.00 0.00 47 1014.1
20260505221104 60 173 0.0 3.0 0.00 0.00 0.00 47 1013.9
20260505221004 60 171 0.0 3.0 0.00 0.00 0.00 47 1014.0
20260505220904 60 171 0.0 4.0 0.00 0.00 0.00 47 1014.0
20260505220804 60 172 0.0 4.0 0.00 0.00 0.00 47 1013.9
20260505220704 60 178 0.0 4.0 0.00 0.00 0.00 46 1014.1
20260505220604 60 179 0.0 4.0 0.00 0.00 0.00 47 1014.0
20260505220504 60 179 0.0 4.0 0.00 0.00 0.00 46 1014.0
20260505220404 60 179 0.0 4.0 0.00 0.00 0.00 46 1014.0
20260505220304 60 176 0.0 4.0 0.00 0.00 0.00 47 1014.0
20260505220204 60 176 0.0 4.0 0.00 0.00 0.00 46 1014.0
20260505220104 60 177 0.0 4.0 0.00 0.00 0.00 46 1013.8
20260505220004 60 180 1.0 4.0 0.00 0.00 0.00 46 1013.9
20260505215925 60 183 0.0 4.0 0.00 0.00 0.00 46 1013.9
20260505215825 60 183 0.0 4.0 0.00 0.00 0.00 46 1014.2
20260505215725 60 177 0.0 4.0 0.00 0.00 0.00 46 1013.9
20260505215604 60 173 0.0 4.0 0.00 0.00 0.00 46 1013.9
20260505215504 61 173 0.0 4.0 0.00 0.00 0.00 46 1013.8
20260505215404 61 173 0.0 4.0 0.00 0.00 0.00 46 1014.1
20260505215325 61 174 0.0 4.0 0.00 0.00 0.00 46 1013.9
20260505215204 61 175 0.0 4.0 0.00 0.00 0.00 46 1013.9
20260505215104 61 175 0.0 4.0 0.00 0.00 0.00 46 1013.9
20260505215004 61 170 0.0 4.0 0.00 0.00 0.00 46 1014.1
20260505214904 61 174 0.0 4.0 0.00 0.00 0.00 46 1014.1
20260505214804 61 174 0.0 4.0 0.00 0.00 0.00 46 1014.0
20260505214725 61 182 0.0 3.0 0.00 0.00 0.00 46 1013.9
20260505214625 61 175 0.0 6.0 0.00 0.00 0.00 46 1013.9
20260505214504 61 171 0.0 6.0 0.00 0.00 0.00 46 1013.9
20260505214404 61 169 1.0 6.0 0.00 0.00 0.00 46 1013.8
20260505214304 61 169 1.0 6.0 0.00 0.00 0.00 46 1014.1
20260505214204 61 169 1.0 6.0 0.00 0.00 0.00 46 1013.8
20260505214104 61 171 1.0 6.0 0.00 0.00 0.00 46 1014.0
20260505214004 61 173 1.0 6.0 0.00 0.00 0.00 46 1013.9
20260505213904 61 171 1.0 6.0 0.00 0.00 0.00 45 1013.9
20260505213804 61 170 1.0 6.0 0.00 0.00 0.00 45 1014.0
20260505213704 61 169 1.0 6.0 0.00 0.00 0.00 46 1013.8
20260505213604 61 172 1.0 6.0 0.00 0.00 0.00 45 1013.9
20260505213504 61 173 1.0 6.0 0.00 0.00 0.00 45 1013.9
20260505213404 61 178 1.0 6.0 0.00 0.00 0.00 45 1014.0
20260505213325 61 179 1.0 6.0 0.00 0.00 0.00 45 1014.1
20260505213204 61 180 1.0 4.0 0.00 0.00 0.00 45 1014.1
20260505213104 61 177 1.0 4.0 0.00 0.00 0.00 46 1013.8
20260505213004 61 177 1.0 4.0 0.00 0.00 0.00 46 1014.1
20260505212904 61 178 1.0 4.0 0.00 0.00 0.00 46 1013.8
20260505212805 61 178 1.0 4.0 0.00 0.00 0.00 46 1014.0
20260505212704 61 177 1.0 4.0 0.00 0.00 0.00 46 1014.0
20260505212604 61 178 1.0 4.0 0.00 0.00 0.00 46 1013.9
20260505212504 61 178 1.0 4.0 0.00 0.00 0.00 46 1013.8
20260505212404 61 175 1.0 4.0 0.00 0.00 0.00 46 1014.0
20260505212325 61 175 1.0 4.0 0.00 0.00 0.00 46 1013.7
20260505212204 61 176 1.0 4.0 0.00 0.00 0.00 46 1014.0
20260505212104 61 176 1.0 4.0 0.00 0.00 0.00 46 1014.1
20260505212004 61 174 0.0 3.0 0.00 0.00 0.00 46 1013.9
20260505211904 61 173 0.0 3.0 0.00 0.00 0.00 46 1013.9
20260505211804 61 174 0.0 3.0 0.00 0.00 0.00 47 1014.0
20260505211725 61 174 0.0 3.0 0.00 0.00 0.00 47 1013.9
20260505211604 61 173 0.0 3.0 0.00 0.00 0.00 47 1013.9
20260505211504 61 173 0.0 3.0 0.00 0.00 0.00 47 1014.0
20260505211404 61 173 0.0 3.0 0.00 0.00 0.00 47 1014.0
20260505211304 61 174 0.0 3.0 0.00 0.00 0.00 47 1013.9
20260505211204 61 172 0.0 3.0 0.00 0.00 0.00 47 1013.9
20260505211104 61 180 0.0 4.0 0.00 0.00 0.00 47 1014.2
20260505211004 61 179 0.0 4.0 0.00 0.00 0.00 47 1014.2
20260505210904 61 178 0.0 4.0 0.00 0.00 0.00 47 1014.0
20260505210804 61 178 0.0 4.0 0.00 0.00 0.00 47 1014.0
20260505210704 61 179 0.0 4.0 0.00 0.00 0.00 47 1013.9
20260505210604 61 176 0.0 4.0 0.00 0.00 0.00 47 1014.0
20260505210504 61 172 0.0 4.0 0.00 0.00 0.00 47 1013.8
20260505210404 61 172 0.0 4.0 0.00 0.00 0.00 47 1013.9
20260505210304 61 172 0.0 4.0 0.00 0.00 0.00 47 1013.9
20260505210204 61 170 0.0 4.0 0.00 0.00 0.00 47 1013.9
20260505210104 61 167 0.0 4.0 0.00 0.00 0.00 47 1013.9
20260505210004 61 164 0.0 4.0 0.00 0.00 0.00 47 1013.8
20260505205904 61 165 0.0 4.0 0.00 0.00 0.00 47 1013.9
20260505205804 61 165 0.0 4.0 0.00 0.00 0.00 47 1013.9
20260505205725 61 173 0.0 4.0 0.00 0.00 0.00 47 1014.0
20260505205625 61 173 0.0 4.0 0.00 0.00 0.00 47 1014.0
20260505205525 61 178 0.0 4.0 0.00 0.00 0.00 47 1013.6
20260505205405 61 176 0.0 4.0 0.00 0.00 0.00 47 1014.0
20260505205326 62 176 0.0 4.0 0.00 0.00 0.00 47 1013.9
20260505205225 62 176 0.0 4.0 0.00 0.00 0.00 47 1013.7
20260505205104 62 174 0.0 4.0 0.00 0.00 0.00 47 1014.0
20260505205004 62 174 0.0 4.0 0.00 0.00 0.00 46 1013.9
20260505204904 62 174 0.0 4.0 0.00 0.00 0.00 46 1013.8
20260505204804 62 175 0.0 4.0 0.00 0.00 0.00 46 1013.8
20260505204704 62 171 0.0 4.0 0.00 0.00 0.00 46 1013.9
20260505204604 62 169 0.0 3.0 0.00 0.00 0.00 46 1013.8
20260505204504 62 169 0.0 3.0 0.00 0.00 0.00 46 1013.9
20260505204404 62 170 0.0 3.0 0.00 0.00 0.00 46 1013.8
20260505204304 62 171 0.0 3.0 0.00 0.00 0.00 46 1013.8
20260505204204 62 173 0.0 3.0 0.00 0.00 0.00 46 1013.8
20260505204104 62 173 0.0 3.0 0.00 0.00 0.00 46 1013.7
20260505204004 62 173 0.0 3.0 0.00 0.00 0.00 46 1013.8
20260505203904 62 173 0.0 3.0 0.00 0.00 0.00 46 1013.7
20260505203804 62 172 1.0 4.0 0.00 0.00 0.00 46 1014.0
20260505203704 62 171 1.0 6.0 0.00 0.00 0.00 45 1013.8
20260505203604 62 172 1.0 6.0 0.00 0.00 0.00 45 1013.6
20260505203504 62 173 1.0 6.0 0.00 0.00 0.00 45 1013.8
20260505203404 63 175 1.0 6.0 0.00 0.00 0.00 45 1013.9
20260505203304 63 176 1.0 6.0 0.00 0.00 0.00 45 1014.0
20260505203204 63 177 1.0 6.0 0.00 0.00 0.00 45 1013.6
20260505203104 63 177 1.0 6.0 0.00 0.00 0.00 45 1013.8
20260505203004 63 178 1.0 6.0 0.00 0.00 0.00 45 1013.7
20260505202925 63 177 1.0 6.0 0.00 0.00 0.00 45 1014.0
20260505202804 63 178 1.0 6.0 0.00 0.00 0.00 45 1013.5
20260505202704 63 180 1.0 6.0 0.00 0.00 0.00 44 1013.6
20260505202604 63 180 0.0 6.0 0.00 0.00 0.00 45 1014.0
20260505202504 63 179 0.0 6.0 0.00 0.00 0.00 45 1013.8
20260505202404 63 177 0.0 6.0 0.00 0.00 0.00 45 1013.7
20260505202306 63 176 0.0 4.0 0.00 0.00 0.00 45 1013.7
20260505202204 63 172 0.0 3.0 0.00 0.00 0.00 44 1013.8
20260505202104 63 171 0.0 3.0 0.00 0.00 0.00 44 1013.7
20260505202004 63 173 0.0 3.0 0.00 0.00 0.00 45 1013.5
20260505201904 63 178 0.0 2.0 0.00 0.00 0.00 45 1013.7
20260505201825 63 178 0.0 2.0 0.00 0.00 0.00 45 1013.6
20260505201704 63 178 0.0 2.0 0.00 0.00 0.00 44 1013.7
20260505201604 63 177 0.0 3.0 0.00 0.00 0.00 44 1013.7
20260505201504 63 173 0.0 6.0 0.00 0.00 0.00 44 1013.7
20260505201404 63 174 0.0 6.0 0.00 0.00 0.00 44 1013.7
20260505201304 63 176 0.0 6.0 0.00 0.00 0.00 44 1013.6
20260505201204 63 176 1.0 6.0 0.00 0.00 0.00 44 1013.8
20260505201104 63 174 1.0 6.0 0.00 0.00 0.00 43 1013.7
20260505201004 63 174 1.0 6.0 0.00 0.00 0.00 43 1013.7
20260505200904 64 173 0.0 6.0 0.00 0.00 0.00 43 1013.7
20260505200804 64 172 1.0 6.0 0.00 0.00 0.00 43 1013.6
20260505200704 64 173 0.0 6.0 0.00 0.00 0.00 43 1013.7
20260505200604 64 173 0.0 6.0 0.00 0.00 0.00 43 1013.7
20260505200504 64 177 0.0 3.0 0.00 0.00 0.00 43 1013.8
20260505200404 64 176 0.0 3.0 0.00 0.00 0.00 43 1013.6
20260505200325 64 173 0.0 2.0 0.00 0.00 0.00 43 1013.6
20260505200204 63 173 0.0 2.0 0.00 0.00 0.00 43 1013.8
20260505200126 63 175 0.0 2.0 0.00 0.00 0.00 43 1013.4
20260505200004 63 174 0.0 2.0 0.00 0.00 0.00 43 1013.5
20260505195904 63 175 0.0 2.0 0.00 0.00 0.00 43 1013.6
20260505195804 63 175 0.0 2.0 0.00 0.00 0.00 43 1013.6
20260505195704 63 175 0.0 2.0 0.00 0.00 0.00 43 1013.7
20260505195604 63 175 0.0 2.0 0.00 0.00 0.00 43 1013.6
20260505195504 63 175 0.0 2.0 0.00 0.00 0.00 44 1013.6
20260505195404 63 177 0.0 2.0 0.00 0.00 0.00 43 1013.5
20260505195305 63 178 0.0 2.0 0.00 0.00 0.00 43 1013.7
20260505195204 62 178 0.0 2.0 0.00 0.00 0.00 43 1013.6
20260505195104 62 190 0.0 1.0 0.00 0.00 0.00 44 1013.4
20260505195025 62 190 0.0 1.0 0.00 0.00 0.00 44 1013.5
20260505194904 62 0 0.0 0.0 0.00 0.00 0.00 44 1013.5
20260505194804 62 156 0.0 1.0 0.00 0.00 0.00 44 1013.6
20260505194704 62 156 0.0 1.0 0.00 0.00 0.00 44 1013.8
20260505194604 62 156 0.0 1.0 0.00 0.00 0.00 44 1013.5
20260505194504 62 156 0.0 1.0 0.00 0.00 0.00 44 1013.4
20260505194404 63 156 0.0 1.0 0.00 0.00 0.00 44 1013.6
20260505194304 63 156 0.0 1.0 0.00 0.00 0.00 44 1013.5
20260505194204 63 156 0.0 1.0 0.00 0.00 0.00 44 1013.4
20260505194104 63 159 0.0 1.0 0.00 0.00 0.00 44 1013.4
20260505194025 63 174 0.0 1.0 0.00 0.00 0.00 44 1013.4
20260505193904 63 174 0.0 1.0 0.00 0.00 0.00 43 1013.5
20260505193804 63 183 0.0 1.0 0.00 0.00 0.00 44 1013.4
20260505193704 63 183 0.0 1.0 0.00 0.00 0.00 43 1013.3
20260505193604 63 183 0.0 1.0 0.00 0.00 0.00 43 1013.1
20260505193504 63 183 0.0 1.0 0.00 0.00 0.00 44 1013.4
20260505193404 63 183 0.0 1.0 0.00 0.00 0.00 43 1013.4
20260505193325 63 183 0.0 1.0 0.00 0.00 0.00 43 1013.3
20260505193225 63 183 0.0 1.0 0.00 0.00 0.00 43 1013.4
20260505193104 63 190 0.0 1.0 0.00 0.00 0.00 43 1013.3
20260505193004 63 0 0.0 0.0 0.00 0.00 0.00 44 1013.3
20260505192904 62 0 0.0 0.0 0.00 0.00 0.00 44 1013.2
20260505192804 62 0 0.0 0.0 0.00 0.00 0.00 44 1013.1
20260505192704 62 0 0.0 0.0 0.00 0.00 0.00 45 1013.3
20260505192604 62 0 0.0 0.0 0.00 0.00 0.00 45 1013.4
20260505192525 61 0 0.0 0.0 0.00 0.00 0.00 46 1013.4
20260505192425 61 0 0.0 0.0 0.00 0.00 0.00 46 1013.2
20260505192305 61 0 0.0 0.0 0.00 0.00 0.00 47 1013.3
20260505192204 61 0 0.0 0.0 0.00 0.00 0.00 48 1013.3
20260505192104 60 0 0.0 0.0 0.00 0.00 0.00 49 1013.3
20260505192025 60 0 0.0 0.0 0.00 0.00 0.00 50 1013.2
20260505191904 61 0 0.0 0.0 0.00 0.00 0.00 52 1013.5
20260505191804 61 0 0.0 0.0 0.00 0.00 0.00 51 1013.2
20260505191725 61 0 0.0 0.0 0.00 0.00 0.00 51 1013.3
20260505191625 61 0 0.0 0.0 0.00 0.00 0.00 52 1013.3
20260505191504 61 0 0.0 0.0 0.00 0.00 0.00 52 1013.4
20260505191425 61 0 0.0 0.0 0.00 0.00 0.00 52 1013.3
20260505191304 61 0 0.0 0.0 0.00 0.00 0.00 51 1013.2
20260505191225 61 0 0.0 0.0 0.00 0.00 0.00 51 1013.4
20260505191104 61 0 0.0 0.0 0.00 0.00 0.00 51 1013.4
20260505191004 61 0 0.0 0.0 0.00 0.00 0.00 51 1013.4
20260505190925 61 0 0.0 0.0 0.00 0.00 0.00 50 1013.4
20260505190804 61 0 0.0 0.0 0.00 0.00 0.00 49 1013.3
20260505190704 61 0 0.0 0.0 0.00 0.00 0.00 50 1013.3
20260505190604 61 0 0.0 0.0 0.00 0.00 0.00 50 1013.2
20260505190525 61 0 0.0 0.0 0.00 0.00 0.00 50 1013.4
20260505190405 61 0 0.0 0.0 0.00 0.00 0.00 50 1013.2
20260505190304 61 0 0.0 0.0 0.00 0.00 0.00 51 1013.2
20260505190204 62 0 0.0 0.0 0.00 0.00 0.00 51 1013.6
20260505190104 62 0 0.0 0.0 0.00 0.00 0.00 51 1013.2
20260505190004 62 0 0.0 0.0 0.00 0.00 0.00 51 1013.3
20260505185904 62 0 0.0 0.0 0.00 0.00 0.00 51 1013.2
20260505185804 62 0 0.0 0.0 0.00 0.00 0.00 51 1013.1
20260505185725 62 0 0.0 0.0 0.00 0.00 0.00 50 1013.4
20260505185604 62 0 0.0 0.0 0.00 0.00 0.00 49 1013.2
20260505185525 62 0 0.0 0.0 0.00 0.00 0.00 49 1013.1
20260505185404 62 0 0.0 0.0 0.00 0.00 0.00 48 1013.3
20260505185305 62 0 0.0 0.0 0.00 0.00 0.00 49 1013.1
20260505185204 62 0 0.0 0.0 0.00 0.00 0.00 48 1013.3
20260505185104 62 0 0.0 0.0 0.00 0.00 0.00 47 1013.0
20260505185004 62 0 0.0 0.0 0.00 0.00 0.00 47 1013.1
20260505184925 62 0 0.0 0.0 0.00 0.00 0.00 47 1013.4
20260505184825 62 0 0.0 0.0 0.00 0.00 0.00 47 1013.2
20260505184704 62 0 0.0 0.0 0.00 0.00 0.00 47 1013.2
20260505184604 62 0 0.0 0.0 0.00 0.00 0.00 49 1013.2
20260505184504 62 0 0.0 0.0 0.00 0.00 0.00 49 1013.2
20260505184425 62 0 0.0 0.0 0.00 0.00 0.00 49 1013.0
20260505184304 62 0 0.0 0.0 0.00 0.00 0.00 49 1013.0
20260505184204 62 0 0.0 0.0 0.00 0.00 0.00 49 1013.4
20260505184125 62 0 0.0 0.0 0.00 0.00 0.00 50 1013.1
20260505184005 62 0 0.0 0.0 0.00 0.00 0.00 49 1013.1
20260505183904 62 0 0.0 0.0 0.00 0.00 0.00 48 1013.2
20260505183804 62 0 0.0 0.0 0.00 0.00 0.00 49 1013.2
20260505183704 62 0 0.0 0.0 0.00 0.00 0.00 49 1013.3
20260505183604 62 0 0.0 0.0 0.00 0.00 0.00 48 1013.2
20260505183504 62 0 0.0 0.0 0.00 0.00 0.00 48 1013.0
20260505183405 63 0 0.0 0.0 0.00 0.00 0.00 49 1013.1
20260505183304 63 0 0.0 0.0 0.00 0.00 0.00 48 1013.1
20260505183204 63 0 0.0 0.0 0.00 0.00 0.00 47 1013.2
20260505183104 63 0 0.0 0.0 0.00 0.00 0.00 46 1013.1
20260505183004 63 0 0.0 0.0 0.00 0.00 0.00 46 1013.0
20260505182904 64 0 0.0 0.0 0.00 0.00 0.00 47 1013.1
20260505182804 64 0 0.0 0.0 0.00 0.00 0.00 46 1013.2
20260505182704 64 0 0.0 0.0 0.00 0.00 0.00 46 1013.1
20260505182604 64 0 0.0 0.0 0.00 0.00 0.00 46 1012.8
20260505182504 64 0 0.0 0.0 0.00 0.00 0.00 47 1013.0
20260505182404 64 0 0.0 0.0 0.00 0.00 0.00 46 1012.9
20260505182306 64 0 0.0 0.0 0.00 0.00 0.00 47 1013.1
20260505182204 64 0 0.0 0.0 0.00 0.00 0.00 47 1013.1
20260505182104 64 0 0.0 0.0 0.00 0.00 0.00 48 1013.1
20260505182004 64 0 0.0 0.0 0.00 0.00 0.00 47 1013.0
20260505181904 64 0 0.0 0.0 0.00 0.00 0.00 47 1013.2
20260505181825 64 0 0.0 0.0 0.00 0.00 0.00 47 1012.9
20260505181704 65 0 0.0 0.0 0.00 0.00 0.00 46 1013.0
20260505181625 65 0 0.0 0.0 0.00 0.00 0.00 45 1013.0
20260505181504 65 0 0.0 0.0 0.00 0.00 0.00 44 1013.0
20260505181404 65 0 0.0 0.0 0.00 0.00 0.00 43 1013.0
20260505181304 65 0 0.0 0.0 0.00 0.00 0.00 43 1012.9
20260505181204 65 0 0.0 0.0 0.00 0.00 0.00 43 1013.0
20260505181104 65 0 0.0 0.0 0.00 0.00 0.00 41 1013.0
20260505181004 65 0 0.0 0.0 0.00 0.00 0.00 43 1013.1
20260505180904 65 0 0.0 0.0 0.00 0.00 0.00 43 1013.0
20260505180804 65 0 0.0 0.0 0.00 0.00 0.00 44 1013.0
20260505180704 65 0 0.0 0.0 0.00 0.00 0.00 43 1013.2
20260505180604 64 0 0.0 0.0 0.00 0.00 0.00 44 1013.0
20260505180504 64 0 0.0 0.0 0.00 0.00 0.00 44 1012.9
20260505180404 64 0 0.0 0.0 0.00 0.00 0.00 44 1013.0
20260505180304 64 0 0.0 0.0 0.00 0.00 0.00 44 1013.0
20260505180204 64 0 0.0 0.0 0.00 0.00 0.00 43 1013.1
20260505180104 64 0 0.0 0.0 0.00 0.00 0.00 43 1013.0
20260505180004 64 0 0.0 0.0 0.00 0.00 0.00 43 1013.0
20260505175904 64 0 0.0 0.0 0.00 0.00 0.00 45 1012.9
20260505175804 64 0 0.0 0.0 0.00 0.00 0.00 44 1012.8
20260505175725 64 0 0.0 0.0 0.00 0.00 0.00 44 1013.0
20260505175604 64 0 0.0 0.0 0.00 0.00 0.00 44 1013.0
20260505175504 64 0 0.0 0.0 0.00 0.00 0.00 45 1012.9
20260505175404 64 0 0.0 0.0 0.00 0.00 0.00 46 1013.0
20260505175325 64 0 0.0 0.0 0.00 0.00 0.00 46 1012.8
20260505175204 64 0 0.0 0.0 0.00 0.00 0.00 45 1013.1
20260505175104 64 0 0.0 0.0 0.00 0.00 0.00 46 1013.0
20260505175004 64 0 0.0 0.0 0.00 0.00 0.00 46 1013.0
20260505174904 64 0 0.0 0.0 0.00 0.00 0.00 46 1013.0
20260505174804 64 0 0.0 0.0 0.00 0.00 0.00 46 1013.0
20260505174704 64 0 0.0 0.0 0.00 0.00 0.00 46 1012.7
20260505174604 64 0 0.0 0.0 0.00 0.00 0.00 47 1012.7
20260505174504 64 0 0.0 0.0 0.00 0.00 0.00 47 1012.9
20260505174425 64 0 0.0 0.0 0.00 0.00 0.00 48 1012.8
20260505174304 65 0 0.0 0.0 0.00 0.00 0.00 48 1013.1
20260505174204 65 0 0.0 0.0 0.00 0.00 0.00 48 1012.9
20260505174125 65 0 0.0 0.0 0.00 0.00 0.00 48 1012.9
20260505174025 65 0 0.0 0.0 0.00 0.00 0.00 48 1012.9
20260505173904 65 0 0.0 0.0 0.00 0.00 0.00 48 1012.8
20260505173804 65 0 0.0 0.0 0.00 0.00 0.00 48 1012.7
20260505173725 65 0 0.0 0.0 0.00 0.00 0.00 48 1012.7
20260505173604 65 0 0.0 0.0 0.00 0.00 0.00 48 1012.6
20260505173504 65 0 0.0 0.0 0.00 0.00 0.00 48 1012.7
20260505173404 65 0 0.0 0.0 0.00 0.00 0.00 48 1012.8
20260505173304 65 0 0.0 0.0 0.00 0.00 0.00 48 1012.6
20260505173204 65 0 0.0 0.0 0.00 0.00 0.00 48 1012.7
20260505173104 66 0 0.0 0.0 0.00 0.00 0.00 48 1012.7
20260505173004 66 0 0.0 0.0 0.00 0.00 0.00 47 1013.0
20260505172904 66 0 0.0 0.0 0.00 0.00 0.00 47 1012.7
20260505172825 66 0 0.0 0.0 0.00 0.00 0.00 47 1012.8
20260505172704 66 0 0.0 0.0 0.00 0.00 0.00 47 1012.9
20260505172604 67 0 0.0 0.0 0.00 0.00 0.00 46 1012.6
20260505172504 67 0 0.0 0.0 0.00 0.00 0.00 46 1012.8
20260505172404 67 0 0.0 0.0 0.00 0.00 0.00 45 1012.6
20260505172325 67 0 0.0 0.0 0.00 0.00 0.00 45 1012.8
20260505172204 67 0 0.0 0.0 0.00 0.00 0.00 44 1012.6
20260505172104 67 0 0.0 0.0 0.00 0.00 0.00 44 1012.8
20260505172004 68 0 0.0 0.0 0.00 0.00 0.00 44 1012.6
20260505171925 68 0 0.0 0.0 0.00 0.00 0.00 44 1012.7
20260505171804 68 0 0.0 0.0 0.00 0.00 0.00 43 1012.6
20260505171725 68 0 0.0 0.0 0.00 0.00 0.00 44 1012.7
20260505171604 68 0 0.0 0.0 0.00 0.00 0.00 42 1012.8
20260505171504 69 0 0.0 0.0 0.00 0.00 0.00 42 1012.8
20260505171404 69 0 0.0 0.0 0.00 0.00 0.00 42 1012.6
20260505171304 69 0 0.0 0.0 0.00 0.00 0.00 42 1012.6
20260505171225 69 0 0.0 0.0 0.00 0.00 0.00 41 1012.6
20260505171104 69 0 0.0 0.0 0.00 0.00 0.00 41 1012.5
20260505171004 69 0 0.0 0.0 0.00 0.00 0.00 41 1012.5
20260505170904 70 0 0.0 0.0 0.00 0.00 0.00 40 1012.7
20260505170825 70 0 0.0 0.0 0.00 0.00 0.00 40 1012.6
20260505170705 70 0 0.0 0.0 0.00 0.00 0.00 39 1012.8
20260505170604 70 0 0.0 0.0 0.00 0.00 0.00 40 1012.5
20260505170504 71 0 0.0 0.0 0.00 0.00 0.00 38 1012.6
20260505170404 71 0 0.0 0.0 0.00 0.00 0.00 37 1012.6
20260505170304 71 0 0.0 0.0 0.00 0.00 0.00 37 1012.7
20260505170225 71 0 0.0 0.0 0.00 0.00 0.00 36 1012.6
20260505170104 72 0 0.0 0.0 0.00 0.00 0.00 35 1012.5
20260505170004 72 0 0.0 0.0 0.00 0.00 0.00 35 1012.7
20260505165904 72 0 0.0 0.0 0.00 0.00 0.00 35 1012.7
20260505165825 72 0 0.0 0.0 0.00 0.00 0.00 36 1012.7
20260505165704 73 0 0.0 0.0 0.00 0.00 0.00 34 1012.5
20260505165625 73 0 0.0 0.0 0.00 0.00 0.00 33 1012.7
20260505165504 73 0 0.0 0.0 0.00 0.00 0.00 34 1012.6
20260505165404 73 0 0.0 0.0 0.00 0.00 0.00 32 1012.8
20260505165306 74 0 0.0 0.0 0.00 0.00 0.00 32 1012.6
20260505165225 74 0 0.0 0.0 0.00 0.00 0.00 31 1012.9
20260505165125 74 0 0.0 0.0 0.00 0.00 0.00 30 1012.7
20260505165004 74 0 0.0 0.0 0.00 0.00 0.00 30 1012.9
20260505164904 74 0 0.0 0.0 0.00 0.00 0.00 28 1012.7
20260505164804 75 0 0.0 0.0 0.00 0.00 0.00 30 1012.6
20260505164704 75 0 0.0 0.0 0.00 0.00 0.00 27 1012.8
20260505164604 75 0 0.0 0.0 0.00 0.00 0.00 29 1012.6
20260505164504 76 0 0.0 0.0 0.00 0.00 0.00 29 1012.7
20260505164404 76 0 0.0 0.0 0.00 0.00 0.00 28 1012.8
20260505164304 76 0 0.0 0.0 0.00 0.00 0.00 27 1012.7
20260505164225 76 0 0.0 0.0 0.00 0.00 0.00 27 1012.6
20260505164104 76 0 0.0 0.0 0.00 0.00 0.00 26 1012.6
20260505164004 76 0 0.0 0.0 0.00 0.00 0.00 26 1012.7
20260505163904 76 0 0.0 0.0 0.00 0.00 0.00 24 1012.6
20260505163804 76 0 0.0 0.0 0.00 0.00 0.00 22 1012.7
20260505163704 77 0 0.0 0.0 0.00 0.00 0.00 26 1012.7
20260505163604 77 0 0.0 0.0 0.00 0.00 0.00 24 1012.7
20260505163504 77 0 0.0 0.0 0.00 0.00 0.00 25 1012.6
20260505163404 77 0 0.0 0.0 0.00 0.00 0.00 22 1012.7
20260505163325 77 0 0.0 0.0 0.00 0.00 0.00 23 1012.7
20260505163204 77 0 0.0 0.0 0.00 0.00 0.00 24 1012.8
20260505163104 77 0 0.0 0.0 0.00 0.00 0.00 23 1012.7
20260505163004 77 0 0.0 0.0 0.00 0.00 0.00 21 1012.6
20260505162904 77 0 0.0 0.0 0.00 0.00 0.00 22 1012.7
20260505162804 77 0 0.0 0.0 0.00 0.00 0.00 23 1012.7
20260505162704 77 0 0.0 0.0 0.00 0.00 0.00 22 1012.5
20260505162604 77 0 0.0 0.0 0.00 0.00 0.00 23 1012.7
20260505162525 77 0 0.0 0.0 0.00 0.00 0.00 23 1012.5
20260505162404 78 0 0.0 0.0 0.00 0.00 0.00 23 1012.7
20260505162306 78 0 0.0 0.0 0.00 0.00 0.00 21 1012.8
20260505162204 78 0 0.0 0.0 0.00 0.00 0.00 21 1012.9
20260505162125 78 0 0.0 0.0 0.00 0.00 0.00 21 1012.8
20260505162004 78 0 0.0 0.0 0.00 0.00 0.00 23 1012.7
20260505161904 78 0 0.0 0.0 0.00 0.00 0.00 21 1012.8
20260505161825 78 0 0.0 0.0 0.00 0.00 0.00 20 1012.6
20260505161704 78 0 0.0 0.0 0.00 0.00 0.00 20 1012.7
20260505161604 78 0 0.0 0.0 0.00 0.00 0.00 21 1012.7
20260505161504 79 0 0.0 0.0 0.00 0.00 0.00 20 1012.6
20260505161404 79 0 0.0 0.0 0.00 0.00 0.00 20 1012.5
20260505161325 79 0 0.0 0.0 0.00 0.00 0.00 20 1012.7
20260505161225 79 0 0.0 0.0 0.00 0.00 0.00 20 1012.7
20260505161104 79 0 0.0 0.0 0.00 0.00 0.00 19 1012.7
20260505161004 79 0 0.0 0.0 0.00 0.00 0.00 20 1012.9
20260505160904 79 0 0.0 0.0 0.00 0.00 0.00 22 1012.5
20260505160804 79 0 0.0 0.0 0.00 0.00 0.00 21 1012.8
20260505160704 79 0 0.0 0.0 0.00 0.00 0.00 20 1012.6
20260505160604 79 0 0.0 0.0 0.00 0.00 0.00 20 1012.7
20260505160525 79 0 0.0 0.0 0.00 0.00 0.00 20 1012.6
20260505160404 79 0 0.0 0.0 0.00 0.00 0.00 20 1012.8
20260505160304 79 0 0.0 0.0 0.00 0.00 0.00 18 1012.7
20260505160225 79 0 0.0 0.0 0.00 0.00 0.00 19 1012.7
20260505160104 79 0 0.0 0.0 0.00 0.00 0.00 20 1012.8